Super Radio's 1000 most recently played songs:

  1. 2019-07-19 06:19:18 LOVERDE - DIE HARD LOVER [ 1982, MOBY DICK RECORDS (BTG 1132) / US ] 128.67 BPM
  2. 2019-07-19 06:13:58 IAN LEX AND LISA - NO MORE TEARS (ENOUGH IS ENOUGH) [ 1990, HIGH ENERGY RECORDS (HE 139) / ITALY ] 128.44 BPM
  3. 2019-07-19 06:10:29 STEFANIA - MAMA DON'T KNOW [ 1989, ACV SOUND (ACV 5464) / ITALY ] 128.61 BPM
  4. 2019-07-19 06:05:00 KOXO - STEP BY STEP [ 1982, INTERSTATE RECORDS (KX 105) / ITALY ] 128.19 BPM
  5. 2019-07-19 06:01:02 ANGEL - ANGEL [ 1989, MEMORY RECORDS (MEMIX 090) / ITALY ] 127.97 BPM
  6. 2019-07-19 05:56:20 MAX-GANG - AUTOMATIC LOVER [ 1987, I.D.D. ONE RECORDS (I.D.D. Z04) / ITALY ] 127.97 BPM
  7. 2019-07-19 05:53:20 N.O.I.A. - TRY AND SEE [ 1985, ITALIAN RECORDS (EXIT M 530) / ITALY ] 127.72 BPM
  8. 2019-07-19 05:49:50 MICHIEL V.D. KUY FEAT. CONNY PORCHE - WATCH OUT [ 1991, AVEX TRAX RECORDS (AVCD 1003) / JAPAN ] 127.72 BPM
  9. 2019-07-19 05:46:48 TONY CASO - MOTORCYCLE MADNESS [ 1986, EUROBEAT RECORDS (EB 023) / US ] 127.33 BPM
  10. 2019-07-19 05:43:48 MICHAEL HEART - SHE'S A MODEL [ 1984, CLEVER RECORDS (8365) / FRANCE ] 126.98 BPM
  11. 2019-07-19 05:39:45 RADIORAMA - BACIAMI (KISS ME) [ 1989, RADIORAMA PRODUCTIONS (RA 89.05) / ITALY ] 126 BPM
  12. 2019-07-19 05:35:34 ALEPH - BLACK OUT [ 1988, TIME RECORDS (TRD 1066) / ITALY ] 126 BPM
  13. 2019-07-19 05:32:23 GAZEBO - LUNATIC [ 1983, BABY RECORDS (BR 54028) / ITALY ] 126.12 BPM
  14. 2019-07-19 05:28:14 DIVINE - YOU THINK YOU'RE A MAN [ 1984, PROTO RECORDS (ENA(T) 118) / UK ] 126.43 BPM
  15. 2019-07-19 05:24:23 SABRINA - SEXY GIRL [ 1986, IBIZA RECORDS (IBZ 427) / ITALY ] 125.98 BPM
  16. 2019-07-19 05:20:55 RIS - LET'S STAY TOGETHER [ 1985, MANY RECORDS (MN 539) / ITALY ] 125.98 BPM
  17. 2019-07-19 05:17:07 SHARON - LOVE IS A SOUL MISTERY [ 1990, FINZY RECORDS (FZR 005) / ITALY ] 125.98 BPM
  18. 2019-07-19 05:12:00 MOTION - DON'T STOP [ 1982, TOJO RECORDS (T12-1003) / CANADA ] 125.98 BPM
  19. 2019-07-19 05:06:56 THOMAS AND SCHUBERT - LITTLE FLOWERS [ 1989, FLEA RECORDS (FL 8418) / ITALY ] 126.01 BPM
  20. 2019-07-19 05:02:17 KLEIN & MBO - WONDERFUL [ 1982, PHOENIX RECORDS (PHOMIX 311) / ITALY ] 125.44 BPM
  21. 2019-07-19 04:59:52 SPARKS - BEAT THE CLOCK [ 1979, VIRGIN RECORDS (VS 27012) / UK ] 125.44 BPM
  22. 2019-07-19 04:56:21 VIANA - VICTIM OF DESIRE [ 1986, MAX MUSIC (MAX 189) / SPAIN ] 126.1 BPM
  23. 2019-07-19 04:52:33 PAULA FINA - LOVING ALL THE NIGHT [ 1990, DISCO ENERGY RECORDS (DE 1008) / ITALY ] 126.1 BPM
  24. 2019-07-19 04:48:50 GIPSY & QUEEN - GIPSY & QUEEN - I LOVE U.S.A. [ 1989, TIME RECORDS (TRD 1071) / ITALY ] 126.07 BPM
  25. 2019-07-19 04:44:24 ROSS CONTI - IF PARADISE [ 1989, GREEN PRODUCTIONS (GP 19102) / ITALY ] 126.07 BPM
  26. 2019-07-19 04:39:50 LAURIE - YOU CAN TELL ME [ 1991, FCF RECORDS (FCF 19) / ITALY ] 126.07 BPM
  27. 2019-07-19 04:35:48 DOMINO - FEVER [ 1989, DISCOMAGIC RECORDS (MIX 356) / ITALY ] 127.02 BPM
  28. 2019-07-19 04:31:46 E.L. GANG - SUPERMAN (YOU THRILL WITH YOUR SUPER LOVE) [ 1989, RADIORAMA PRODUCTIONS (RA 89.17) / ITALY ] 126.76 BPM
  29. 2019-07-19 04:26:55 B.B. AND BAND - SIMPLE SONG [ 1984, GONG RECORDS (GONG 001) / ITALY ] 126.76 BPM
  30. 2019-07-19 04:21:30 GET FLASH - BEAUTIFUL NIGHT [ 1983, OUT RECORDS (OUT 3002) / ITALY ] 126.76 BPM
  31. 2019-07-19 04:18:03 NICK STRAKER - A WALK IN THE PARK (1987 PRODUCTION) [ 1987, SEDITION RECORDS (EDITL 3333) / UK ] 126.3 BPM
  32. 2019-07-19 04:14:14 KANO - HOLLY DOLLY [ 1980, BABY RECORDS (BR 54002) / ITALY ] 125.6 BPM
  33. 2019-07-19 04:10:20 CHICO CHICO - HOT FOR YOU [ 1991, RADIORAMA PRODUCTIONS (RA 26/91) / ITALY ] 126.54 BPM
  34. 2019-07-19 04:07:32 RAYLÒ - SPANISH JOURNEY [ 1983, TRASH RECORDS (TRASH 04) / ITALY ] 125.98 BPM
  35. 2019-07-19 04:03:43 KINKY GO - YOU YOU YOU [ 1988, BMS RECORDS (BMS 333) / ITALY ] 125.98 BPM
  36. 2019-07-19 04:00:37 WILSON FERGUSON - SOMETIMES [ 1991, EUROENERGY RECORDS (EURO 2810) / ITALY ] 125.98 BPM
  37. 2019-07-19 03:57:36 THE BUCKBEATS - DAYDREAM (HI-NRG REMIX) [ 1988, FLEA RECORDS (FL 8404) / ITALY ] 125.98 BPM
  38. 2019-07-19 03:52:43 MARX & SPENCER - STAY (REMIX) [ 1986, ZYX RECORDS (ZYX 5463) / ITALY ] 125.98 BPM
  39. 2019-07-19 03:49:02 ROY - SHOOTING STAR [ 1987, MEMORY RECORDS (MEMIX 062) / ITALY ] 125.42 BPM
  40. 2019-07-19 03:44:55 JEAN RICH - DON'T GET SERIOUS [ 1986, X-ENERGY RECORDS (X-12016) / ITALY ] 125.7 BPM
  41. 2019-07-19 03:41:15 ALAN BARCKLAY - COLOUR OF LOVE [ 1989, ASIA RECORDS (ARD 1034) / ITALY ] 125.7 BPM
  42. 2019-07-19 03:37:41 ELVIN - YOU SET MY HEART ON FIRE [ 1986, BELLAPHON RECORDS (120-05-005) / GERMANY ] 125.7 BPM
  43. 2019-07-19 03:32:14 SHADO - TONIGHT MY LOVE IS ALIVE [ 1989, MEMORY RECORDS (MEMIX 094) / ITALY ] 126.14 BPM
  44. 2019-07-19 03:29:18 PAOLA MELATO - ENERGY [ 1989, BMS RECORDS (BMS 334) / ITALY ] 126.14 BPM
  45. 2019-07-19 03:24:40 FUNKY SISTERS - A REAL MAN [ 1991, RADIORAMA PRODUCTIONS (RA 33/91) / ITALY ] 126.14 BPM
  46. 2019-07-19 03:20:23 RICKY DAVIES - LOVING YOU [ 1989, ASIA RECORDS (ARD 1023) / ITALY ] 127.04 BPM
  47. 2019-07-19 03:17:00 ATTACK - SPECIAL LOVE (REMIX) [ 1989, HOTSOUND RECORDS (HS 8920) / NETHERLANDS ] 127.58 BPM
  48. 2019-07-19 03:14:00 SASHA - DON'T YOU BREAK MY HEART [ 1989, HIGH ENERGY RECORDS (ENERGY 101) / ITALY ] 127.58 BPM
  49. 2019-07-19 03:10:30 THE FLIRTS - PHYSICAL ATTRACTION [ 1985, TELEFON RECORDS (TE 8001) / US ] 127.47 BPM
  50. 2019-07-19 03:08:03 STEVE CLARK - MAMBO [ 1987, MAX MUSIC (MAX 263) / ITALY ] 127.47 BPM
  51. 2019-07-19 03:04:30 NORMAN - LOVER GIRL [ 1986, DISCOS GAMES RECORDS (DG 1215) / ITALY ] 126.98 BPM
  52. 2019-07-19 02:58:20 ALEPH - CHECK IT UP [ 1988, TIME RECORDS (TRD 1085) / ITALY ] 126.98 BPM
  53. 2019-07-19 02:54:01 FRED VENTURA - IMAGINE (YOU'LL NEVER CHANGE YOUR MIND) [ 1987, TIME RECORDS (TRD 1060) / ITALY ] 126.05 BPM
  54. 2019-07-19 02:48:39 GREEN OLIVES - JIVE INTO THE NIGHT [ 1988, X-ENERGY RECORDS (X-12032) / ITALY ] 126.05 BPM
  55. 2019-07-19 02:44:28 KEN LASZLO - SHA LA LA [ 1991, RADIORAMA PRODUCTIONS (RA 25/91) / ITALY ] 126.05 BPM
  56. 2019-07-19 02:40:59 DIVINE - LOVE REACTION [ 1983, DESIGN COMMUNICATIONS RECORDS (DEST 4) / UK ] 126.9 BPM
  57. 2019-07-19 02:36:36 ALBA - DANGEROUS [ 1987, MERAK MUSIC (MKX 040) / ITALY ] 127.81 BPM
  58. 2019-07-19 02:31:34 VIVIEN VEE - GIVE ME A BREAK ('88 REMIX) [ 1988, X-ENERGY RECORDS (X-12035) / ITALY ] 127.57 BPM
  59. 2019-07-19 02:27:18 REPORTAGE - MADLY IN LOVE [ 1983, IL DISCOTTO PRODUCTIONS (ART 1008) / ITALY ] 127.57 BPM
  60. 2019-07-19 02:23:06 AMIN-PECK - SUICIDAL [ 1983, BEST RECORDS (BEST 12015) / ITALY ] 127.57 BPM
  61. 2019-07-19 02:19:22 BLUE SUNBEAM - BEFORE THE NIGHT IS GONE [ 1989, FLEA RECORDS (FL 8440) / ITALY ] 128.51 BPM
  62. 2019-07-19 02:17:00 RIGHEIRA - NO TENGO DINERO [ 1983, TELDEC RECORDS (6.20 267) / GERMANY ] 128.51 BPM
  63. 2019-07-19 02:11:48 VANESSA - JUST A GAME [ 1989, TIME RECORDS (TRD 1112) / ITALY ] 128.99 BPM
  64. 2019-07-19 02:08:48 SCOTCH - MAN TO MAN [ 1987, AMERICAN DISCO RECORDS (AMD 030) / ITALY ] 128.99 BPM
  65. 2019-07-19 02:04:20 THE GANGSTARS - FROM ME TO YOU [ 1991, FCF RECORDS (FCF 23) / ITALY ] 128.53 BPM
  66. 2019-07-19 01:59:54 ROSS - CAN'T TAKE MY EYES OF YOU (BATMAN REMIX VERSION '89) [ 1989, FLEA RECORDS (FL 8434) / ITALY ] 128.74 BPM
  67. 2019-07-19 01:57:41 JANE HILL - KEEP'ON MUSIC [ 1984, EYES RECORDS (KEY 014) / ITALY ] 129.64 BPM
  68. 2019-07-19 01:53:05 TAPPS - MY FORBIDDEN LOVER [ 1983, POWER RECORDS (PXD 003) / CANADA ] 129.64 BPM
  69. 2019-07-19 01:50:07 CLESS - EXTRATERRESTREALLY [ 1984, ZANZA RECORDS (ZR 0134) / ITALY ] 130.06 BPM
  70. 2019-07-19 01:45:27 EASY GOING - BABY I LOVE YOU (REMIX '88) [ 1988, BANANA RECORDS (BANANA RECORDS) / BAN 24509 ] 129.71 BPM
  71. 2019-07-19 01:42:39 ROMANELLI - CONNECTING FLIGHT [ 1982, POLYDOR RECORDS (2056 972) / FRANCE ] 129.71 BPM
  72. 2019-07-19 01:38:52 MALCOM J. HILL - TAKE A CHANCE [ 1988, FLEA RECORDS (FL 8401) / ITALY ] 128.92 BPM
  73. 2019-07-19 01:36:19 ERIC - BOY OR GIRL? [ 1984, MEMO RECORDS (MEMO 26) / US ] 129.31 BPM
  74. 2019-07-19 01:31:21 KANO - NOW BABY NOW [ 1980, FULL TIME RECORDS (FTL 33005) / ITALY ] 129.31 BPM
  75. 2019-07-19 01:26:54 BOBBY O. WITH: CLAUDJA BARRY - WHISPER TO A SCREAM [ 1985, MENO VISION RECORDS (MEV 007) / US ] 130.11 BPM
  76. 2019-07-19 01:22:25 WIKI WIKI - OLD NIGHT [ 1992, ALFA INTERNATIONAL RECORDS (ALCB 500) / JAPAN ] 130.11 BPM
  77. 2019-07-19 01:17:27 OH ROMEO - LOOKING OUT [ 1983, BOBCAT RECORDS (AS 1751) / US ] 130.11 BPM
  78. 2019-07-19 01:13:28 ANDREA MINGARDI - SALUDOS AMIGOS [ 1984, CRUISIN' RECORDS (CRN 709) / ITALY ] 129.95 BPM
  79. 2019-07-19 01:10:15 KRYSTYNA - LONELY HEARTS [ 1992, EUROBEAT RECORDS (EUR 1200) / ITALY ] 129.98 BPM
  80. 2019-07-19 01:07:10 MAURO MICHELONI - MEGLIO UN GELATO [ 1982, MM PRODUCTIONS (MMP 001) / ITALY ] 129.98 BPM
  81. 2019-07-19 01:01:57 MAX COVERI - PRETTY WOMAN [ 1990, RADIORAMA PRODUCTIONS (RA 90.06) / ITALY ] 129 BPM
  82. 2019-07-19 00:57:57 KANO - I'M READY [ 1980, FULL TIME RECORDS (FTL 33005) / ITALY ] 128.56 BPM
  83. 2019-07-19 00:54:17 NEW YORK RAPPERS - POP POP SHOO WAH [ 1989, RADIORAMA PRODUCTIONS (RA 89.07) / ITALY ] 128.56 BPM
  84. 2019-07-19 00:50:06 X RAY CONNECTION - ESCAPE FROM SPACE [ 1984, BREAK RECORDS (841017) / NETHERLANDS ] 128.56 BPM
  85. 2019-07-19 00:46:45 GIPSY & QUEEN - ACTION [ 1988, TIME RECORDS (TRD 1077) / ITALY ] 127.63 BPM
  86. 2019-07-19 00:41:51 ANGELO MARIA MORALES - YOU MEAN LOVE [ 1991, RADIORAMA PRODUCTIONS (RA 30/91) / ITALY ] 127.08 BPM
  87. 2019-07-19 00:39:05 IRENE - SUNDAY [ 1991, STIL NOVO RECORDS (SNR 00991) / ITALY ] 127.08 BPM
  88. 2019-07-19 00:35:25 RIGHEIRA - VAMOS A LA PLAYA [ 1983, CGD RECORDS (INT 15091) / ITALY ] 127.08 BPM
  89. 2019-07-19 00:31:32 ALEPH - DOCTOR [ 1990, TIME RECORDS (TRD 1144) / ITALY ] 127.08 BPM
  90. 2019-07-19 00:27:30 KANO - I'M READY [ 1980, FULL TIME RECORDS (FTL 33005) / ITALY ] 127.14 BPM
  91. 2019-07-19 00:22:04 GET FLASH - BEAUTIFUL NIGHT [ 1983, OUT RECORDS (OUT 3002) / ITALY ] 126.76 BPM
  92. 2019-07-19 00:16:59 VIVIEN VEE - GIVE ME A BREAK ('88 REMIX) [ 1988, X-ENERGY RECORDS (X-12035) / ITALY ] 125.79 BPM
  93. 2019-07-19 00:13:55 BOB LILLY - CALL MY NAME [ 1991, EUROBEAT RECORDS (EU 002) / ITALY ] 124.94 BPM
  94. 2019-07-19 00:10:20 MARK IMPERIAL - J'ADORE DANSER [ 1985, D.J. INTERNATIONAL RECORDS (DJ 896) / US ] 124.82 BPM
  95. 2019-07-19 00:06:15 SISLEY FERRÉ - GIVE ME YOUR LOVE (VOCAL REMIX VERSION) [ 1986, HOTSOUND RECORDS (HS 8612) / NETHERLANDS ] 124.82 BPM
  96. 2019-07-19 00:00:48 EDDY SKIN - IT'S A LIE [ 1989, HIGH ENERGY RECORDS (HE 106) / ITALY ] 124.02 BPM
  97. 2019-07-18 23:55:52 ROSS - CAN'T TAKE MY EYES OFF YOU [ 1986, BMS RECORDS (BMS 313) / ITALY ] 123.64 BPM
  98. 2019-07-18 23:52:23 TOM MAURICE - NEW WORLD [ 1987, OUT RECORDS (OUT 3113) / ITALY ] 123.64 BPM
  99. 2019-07-18 23:49:00 PAPARAZZI FEAT. JODY - I NEED YOUR LOVE [ 1987, INFINITY RECORDS (INF 12514) / BELGIUM ] 123.64 BPM
  100. 2019-07-18 23:42:08 GARY LOW - I WANT YOU [ 1983, CAT RECORDS (CAT 2006) / ITALY ] 123.12 BPM
  101. 2019-07-18 23:38:40 FERNANDO 'FERNANDISCO' MARTINEZ - ACTION, PASSION, FASHION, MOVING [ 1985, MAX MUSIC (MAX 120) / SPAIN ] 123.1 BPM
  102. 2019-07-18 23:31:23 HELEN - I LOVE YOU [ 1989, MEMORY RECORDS (MEMIX 086) / ITALY ] 123.1 BPM
  103. 2019-07-18 23:25:25 CAMARO'S GANG - ALI SHUFFLE [ 1982, SUPERRADIO RECORDS (SR 7005) / ITALY ] 123.5 BPM
  104. 2019-07-18 23:21:01 LUISA - PAROLE [ 1988, NIGHT 'N DAY RECORDS (ZYX 6039-12) / GERMANY ] 123.5 BPM
  105. 2019-07-18 23:15:29 FAKE - RIGHT (REMIX) [ 1984, DID RECORDS (D 8412) / ITALY ] 122.67 BPM
  106. 2019-07-18 23:11:18 SARA CARLSON - SECRETS OF LOVE [ 1988, CINEVOX RECORDS (SCX 100) / ITALY ] 122.29 BPM
  107. 2019-07-18 23:08:09 TRILOGY - NOT LOVE [ 1982, IL DISCOTTO PRODUCTIONS (ART 1005) / ITALY ] 121.62 BPM
  108. 2019-07-18 23:04:33 BARATTA - VALENTINO [ 1985, BEST RECORDS (SPQR 1127) / ITALY ] 122.36 BPM
  109. 2019-07-18 23:00:36 ALAN BARRY - TELL ME THE REASON [ 1988, DISCOMAGIC RECORDS (MIX 336) / ITALY ] 121.9 BPM
  110. 2019-07-18 22:56:24 SCOTCH - MONEY RUNNER [ 1986, AMERICAN DISCO RECORDS (AMD 025) / ITALY ] 121.31 BPM
  111. 2019-07-18 22:52:26 MARZ - PICK ME UP [ 1984, F1 TEAM RECORDS (P 7614) / ITALY ] 121.31 BPM
  112. 2019-07-18 22:49:50 BALTINORE - STRANGERS FROM THE LIGHT [ 1985 / GERMANY ] 121.31 BPM
  113. 2019-07-18 22:46:09 SAVAGE - I'M LOOSING YOU [ 1988, DISCOMAGIC RECORDS (MIX 342) / ITALY ] 121.31 BPM
  114. 2019-07-18 22:41:29 TELEFON BOYS - GET UP, GET UP [ 1985, THICK RECORDS (TK 014) / ITALY ] 121.31 BPM
  115. 2019-07-18 22:37:54 VINICIO - DANCE YOU AND ME [ 1985, OUT RECORDS (OUT 3043) / ITALY ] 121.21 BPM
  116. 2019-07-18 22:33:39 BAND OF JOCKS - WE LOVE RADIO [ 1987, DI-GEI MUSICA (BPM 105) / ITALY ] 120.85 BPM
  117. 2019-07-18 22:30:13 ANTONELLA VERSACE - ISLAND OF DESIRE [ 1985, CRUISIN' RECORDS (CRN 731) / ITALY ] 120.2 BPM
  118. 2019-07-18 22:26:57 MAX COVERI - ONE MORE TIME [ 1986, FDT RECORDS (FDT 025) / ITALY ] 120.2 BPM
  119. 2019-07-18 22:23:06 WITCH ELIZABETH - MY DESTINY [ 1983, BEST RECORDS (BEST 12022) / ITALY ] 120.2 BPM
  120. 2019-07-18 22:19:48 BOOMERANG CLUB BAND - DANCER [ 1985, SPEED RECORDS (MUS 12018) / ITALY ] 119.7 BPM
  121. 2019-07-18 22:16:32 SHE MALE - I WANNA DISCOVER YOU [ 1984, OUT RECORDS (OUT 3022) / ITALY ] 119.57 BPM
  122. 2019-07-18 22:10:58 SAMOA PARK - MONKEY LATINO [ 1983, ZANZA RECORDS (ZR 0136) / ITALY ] 119.81 BPM
  123. 2019-07-18 22:06:17 SCOTCH - PENGUIN'S INVASION (VOX) [ 1983, AMERICAN DISCO (AMD 001) / ITALY ] 119.81 BPM
  124. 2019-07-18 22:03:43 HIPNOSIS - ARGONAUTS [ 1984, MEMORY RECORDS (MEMIX 023) / ITALY ] 119.63 BPM
  125. 2019-07-18 22:01:18 SEAN TAYLOR - I CAN'T LIVE WITHOUT YOU [ 1983, MIDNITE RECORDS (383 ML) / ITALY ] 119.15 BPM
  126. 2019-07-18 21:56:24 PRIMADONNA - ANGEL YOU [ 1986, MANY RECORDS (MN 556) / ITALY ] 119.15 BPM
  127. 2019-07-18 21:53:36 MICHAEL GRANT - DON'T TURN YOUR BACK [ 1988, LEGEND RECORDS (12 LM 14) / UK ] 120.05 BPM
  128. 2019-07-18 21:49:24 ZETA - EH-AH-OH [ 1984, CRUISIN' RECORDS (CRN 707) / ITALY ] 120.05 BPM
  129. 2019-07-18 21:46:04 J.D. JABER - DON'T STOP LOVIN' [ 1983, MEMORY RECORDS (MEMIX 005) / ITALY ] 120.05 BPM
  130. 2019-07-18 21:43:16 UBALDO MISSONI - LET ME BE YOUR MAN [ 1987, SENSATION RECORDS (SNS 8064) / ITALY ] 120.72 BPM
  131. 2019-07-18 21:38:30 VLADY SHERKANE - CHA CHA CHA FOR YOU [ 1986, CARRERE RECORDS (8679) / FRANCE ] 120.72 BPM
  132. 2019-07-18 21:35:26 BRANDO - RAINY DAY [ 1983, MEMORY RECORDS (MEMIX 012) / ITALY ] 120.43 BPM
  133. 2019-07-18 21:32:03 FUNHOUSE - DANCIN' EASY [ 1988, FREAKY RECORDS (FR 12-1001) / NETHERLANDS ] 120.43 BPM
  134. 2019-07-18 21:28:04 MICAELA - SI SEÑOR [ 1988, JOCKS RECORDS (FTM 31614) / ITALY ] 120.43 BPM
  135. 2019-07-18 21:24:37 KEN LASZLO - TONIGHT (REMIX) [ 1987, MEMORY RECORDS (ME LP 005) / ITALY ] 120.43 BPM
  136. 2019-07-18 21:21:56 MOZZART - MALICE AND VICE [ 1985, METRONOME RECORDS (883 494-1) / GERMANY ] 119.58 BPM
  137. 2019-07-18 21:18:28 LIMIT ECCITATION - IN THE DARK [ 1987, TECHNOLOGY RECORDS (TECHNO 12.12) / ITALY ] 119.58 BPM
  138. 2019-07-18 21:16:08 THE FLASH BACK BAND - FLASH [ 1983, IL DISCOTTO PRODUCTIONS (ART 1010) / ITALY ] 119.58 BPM
  139. 2019-07-18 21:12:29 FRANZ & FRANKIE - LET ME GO [ 1986, DISCOS GAMES RECORDS (DG 1211) / SPAIN ] 119.16 BPM
  140. 2019-07-18 21:05:48 ALBA - ONLY MUSIC SURVIVES [ 1985, MERAK MUSIC (MKX 010) / ITALY ] 120.03 BPM
  141. 2019-07-18 21:02:08 RIS - LOVE 'N MUSIC [ 1983, PROTO RECORDS (NSMIX 2006) / ITALY ] 120.03 BPM
  142. 2019-07-18 20:58:47 MITO - DROID [ 1982, ZANZA RECORDS (ZR 0111) / ITALY ] 119.66 BPM
  143. 2019-07-18 20:53:01 STEVE CLARK - YOU CAN SAY TO EVERYBODY [ 1988, MAX MUSIC (MAX 308) / SPAIN ] 120.03 BPM
  144. 2019-07-18 20:49:09 SANDY MARTON - WHITE STORM IN THE JUNGLE [ 1986, DEMO DISC (DD 431) / ITALY ] 120.03 BPM
  145. 2019-07-18 20:46:54 BOOMERANG CLUB BAND - DEE JAY SUPERSTAR [ 1983, CRASH RECORDS (DS 009) / ITALY ] 120.03 BPM
  146. 2019-07-18 20:43:16 RAM BAND - SILENT SMILES [ 1984, RAM PRODUCTIONS (RAM 00184) / ITALY ] 119.17 BPM
  147. 2019-07-18 20:39:59 FUN FUN - HAPPY STATION (SCRATCH RE-MIX) [ 1983, X-ENERGY RECORDS (X-12003 DJ) / ITALY ] 119.17 BPM
  148. 2019-07-18 20:37:31 CAPRICORN - I NEED LOVE [ 1982, DELIRIUM RECORDS (DLM M25970) / ITALY ] 120.15 BPM
  149. 2019-07-18 20:34:49 GATSBY - LOVE SIGN [ 1984, RICORDI RECORDS (SRLM 2038) / ITALY ] 120.15 BPM
  150. 2019-07-18 20:30:10 VIVIEN VEE - EVERYBODY (RESPECT TO ME) [ 1988, X-ENERGY RECORDS (X-12031) / ITALY ] 120.03 BPM
  151. 2019-07-18 20:26:58 FINZY KONTINI - CHA-CHA-CHA [ 1985, AMERICAN DISCO RECORDS (AMD 015) / ITALY ] 120.03 BPM
  152. 2019-07-18 20:23:23 NICK SIMON - TWO HEARTS [ 1984, AMERICA RECORDS (AR 0513) / ITALY ] 120.62 BPM
  153. 2019-07-18 20:18:27 TOP TOP - VAMOS A LA CAMA [ 1988, ON THE BEAT RECORDS (OTB 1358-6) / FRANCE ] 121.53 BPM
  154. 2019-07-18 20:12:39 JANET D'EON - ANYTHING YOU LIKE [ 1988, POWER RECORDS (PXD 105) / CANADA ] 121.53 BPM
  155. 2019-07-18 20:08:10 T. ARK - COUNT ON ME [ 1987, ZYX RECORDS (ZYX 5591) / GERMANY ] 121.53 BPM
  156. 2019-07-18 20:03:52 TOMMY BOW - DANCE TONIGHT [ 1983, DISCOMAGIC RECORDS (MIX 124) / ITALY ] 121.02 BPM
  157. 2019-07-18 19:59:07 SPLIT MIRRORS - VOICES [ 1987, POLYDOR RECORDS (887041-1) / GERMANY ] 121.02 BPM
  158. 2019-07-18 19:55:28 STAGE - REAL [ 1985, FULL TIME RECORDS (FTM 31570) / ITALY ] 120.42 BPM
  159. 2019-07-18 19:49:52 MR. DRUMMOND - VIDEO GENERATION [ 1988, MASTER PROGRAM RECORDS (MPP 199) / ITALY ] 120.83 BPM
  160. 2019-07-18 19:46:43 LITTLE CASPER AND THE MX'S - THE ULTIMATE WARLORD [ 1981, JDC RECORDS (JDC 12-12) / US ] 121.78 BPM
  161. 2019-07-18 19:43:58 BONNIE AL - ONE DAY [ 1987, OUT RECORDS (OUT 3099) / ITALY ] 121.78 BPM
  162. 2019-07-18 19:40:02 ANTHONY'S GAMES - SUNSHINE LOVE [ 1985, RAM PRODUCTIONS (RAM 00485) / ITALY ] 121.78 BPM
  163. 2019-07-18 19:33:56 ASIA GANG - AFRIKA [ 1991, FCF RECORDS (FCF 29) / ITALY ] 121.08 BPM
  164. 2019-07-18 19:29:59 MOSES - WE JUST [ 1985, S.P.Q.R. RECORDS (SPQR 1128) / ITALY ] 121.47 BPM
  165. 2019-07-18 19:26:47 GEE RAMPLY - RADIO STYLE [ 1984, FDT RECORDS (FDT 006) / ITALY ] 121.43 BPM
  166. 2019-07-18 19:24:06 AMIN-PECK - GIRLS ON ME [ 1982, DELIRIUM RECORDS (DLM M2971) / ITALY ] 122.02 BPM
  167. 2019-07-18 19:20:56 SHELLY BRIEN - IN THE NIGHT TIME (STEP OUT AND DANCE) [ 1984, TANGA LABEL (TL 006) / ITALY ] 121.98 BPM
  168. 2019-07-18 19:18:19 SAHARA - SHINING [ 1985, MANY RECORDS (MN 551) / ITALY ] 121.98 BPM
  169. 2019-07-18 19:14:54 KIRLIAN CAMERA - EDGES [ 1984, ITALIAN RECORDS (EXIT M 520) / ITALY ] 121.98 BPM
  170. 2019-07-18 19:10:51 PEMIO NOBEL - SUGAR LOVE [ 1987, IBIZA RECORDS (IBZ 439) / ITALY ] 121.98 BPM
  171. 2019-07-18 19:06:54 CLICK - QUE TE PASA (REMIX) [ 1989, FLEA RECORDS (FL 8437) / ITALY ] 121.98 BPM
  172. 2019-07-18 19:03:22 KOTO - VISITORS [ 1985, MEMORY RECORDS (MEMIX 030) / ITALY ] 121.98 BPM
  173. 2019-07-18 18:59:23 VICIO LATINO - ¿SABES QUE HORA ES? [ 1984, EPIC RECORDS (EPC A 12.4425) / SPAIN ] 121.4 BPM
  174. 2019-07-18 18:55:22 MOULIN ROUGE - BABY I MISS YOU [ 1989, EXPANDED MUSIC (EX 54Y) / ITALY ] 120.79 BPM
  175. 2019-07-18 18:51:30 ARGENTINA - BABY DON'T YOU BREAK (MY HEART) [ 1986, MEDIA RECORDS (MR 507) / ITALY ] 120.91 BPM
  176. 2019-07-18 18:46:09 MR. ROCAMBLE - I'VE GOT YOUR SOUL [ 1984, HISS RECORDS (HIS 009) / ITALY ] 120.91 BPM
  177. 2019-07-18 18:43:30 WIRED - TO THE BEAT OF THE DRUM [ 1986, UNDERWORLD RECORDS (AP 124) / US ] 120.91 BPM
  178. 2019-07-18 18:40:25 QUINTALINO BAND - MIGUEL SON MI [ TOP LINE PRODUCTIONS (RP 1201) / ITALY ] 120.91 BPM
  179. 2019-07-18 18:35:32 ANGIE CARE - YOUR MIND [ 1984, MERAK MUSIC (MKX 800) / ITALY ] 121.59 BPM
  180. 2019-07-18 18:32:39 GEE CAYTOR - LISTEN [ 1984, MERCURY RECORDS (822 115-7) / GERMANY ] 121.59 BPM
  181. 2019-07-18 18:29:30 PRIMERO - OH QUE CALOR [ 1987, HOTSOUND RECORDS (HS 8722) / NETHERLANDS ] 121.5 BPM
  182. 2019-07-18 18:26:02 ALESIS - STEPPIN' UP [ 1986, TIME RECORDS (TRD 1032) / ITALY ] 121.5 BPM
  183. 2019-07-18 18:22:04 JOEY MOON - ANGELICA [ 1983, HARMONY MUSIC (HY 003) / ITALY ] 121.5 BPM
  184. 2019-07-18 18:17:51 OPEN - MR. LOVER [ 1986, FIVE RECORDS (FM 13812) / ITALY ] 121.16 BPM
  185. 2019-07-18 18:14:44 MAX DELOS - SEX TO TAKE [ 1988, VIDEOSTAR RECORDS (VS 000177) / ITALY ] 121.16 BPM
  186. 2019-07-18 18:10:46 AVENUE - YOU AND ME [ 1985, THICK RECORDS (TK 017) / ITALY ] 121.18 BPM
  187. 2019-07-18 18:04:05 DAN ELLER - CARILLON [ 1983, ZANZA RECORDS (ZR 0131) / ITALY ] 121.18 BPM
  188. 2019-07-18 18:01:22 BLOCK SISTEM - DON'T LEAVE ME NOW [ 1983, RABBIT RECORDS (RR 001) / ITALY ] 121.18 BPM
  189. 2019-07-18 17:57:01 TOMMY - LOVE BEACH [ 1987, ACADEMY RECORDS (ACD 8533) / ITALY ] 121.25 BPM
  190. 2019-07-18 17:54:46 ROSS CONTI - GET READY [ 1987, GREEN PRODUCTION (GP 19-22) / ITALY ] 121.22 BPM
  191. 2019-07-18 17:48:20 SEX BAND - COME ON LET'S DANCE (SEX DANCE) [ 1984, GOOD VIBES RECORDS (PM 12008) / ITALY ] 121.22 BPM
  192. 2019-07-18 17:44:13 BOBBY 'O' - I'M SO HOT FOR YOU (REMIX) [ 1984, ARS RECORDS (BMC 3598) / BELGIUM ] 121.44 BPM
  193. 2019-07-18 17:39:10 CHRIS LUIS - THE HEART OF THE CITY [ 1984, X-ENERGY RECORDS (X-12006) / ITALY ] 120.58 BPM
  194. 2019-07-18 17:35:49 DANA - BE MY LOVER [ 1988, BLACK BIRD RECORDS (BB 002) / ITALY ] 121.33 BPM
  195. 2019-07-18 17:31:23 SHANGHAI - RADIO GIRL [ 1986, ALPHA RECORDS (ONEMAX 036) / SWEDEN ] 121.33 BPM
  196. 2019-07-18 17:28:21 BOBBY 'O' - I'M SO HOT FOR YOU [ 1982, 'O' RECORDS (OR 718) / IS ] 121.33 BPM
  197. 2019-07-18 17:25:41 GATSBY - LOVE SIGN [ 1984, RICORDI RECORDS (SRLM 2038) / ITALY ] 121.33 BPM
  198. 2019-07-18 17:21:13 TAB OKONKWO - MIDNIGHT [ 1989, BMS RECORDS (BMS 502) / ITALY ] 121.33 BPM
  199. 2019-07-18 17:17:16 DIGITAL MIND - COUNTDOWN [ 1985, SOUND OF ITALY (MIX 004) / ITALY ] 121.33 BPM
  200. 2019-07-18 17:13:19 SOME BIZARRE - DON'T BE AFFRAID [ 1983, IL DISCOTTO PRODUCTIONS (ART 1009) / ITALY ] 121.72 BPM
  201. 2019-07-18 17:10:25 ATTACK - CRAZY FOR YOUR LOVE [ 1985, HOTSOUND RECORDS (HS 85612) / NETHERLANDS ] 121.72 BPM
  202. 2019-07-18 17:07:35 TONY TURN - CHERRY CHERY [ 1988, MEMORY RECORDS (MEMIX 079) / ITALY ] 121.72 BPM
  203. 2019-07-18 17:04:07 C.A. AND THE BOX - OUT OF THE BOX [ 1985, TIME RECORDS (TRD 1016) / ITALY ] 121.72 BPM
  204. 2019-07-18 16:58:49 PAUL DIAMOND - DO THAT GOOD [ 1984, ON THE ROCKS RECORDS (PPD 2101) / ITALY ] 121.52 BPM
  205. 2019-07-18 16:54:23 SIMON - BURNING (REMIX) [ 1987, KEEPON MUSIK (KM 838515) / ITALY ] 121.62 BPM
  206. 2019-07-18 16:48:35 JANET D'EON - ANYTHING YOU LIKE [ 1988, POWER RECORDS (PXD 105) / CANADA ] 121.62 BPM
  207. 2019-07-18 16:45:26 TRILOGY - NOT LOVE [ 1982, IL DISCOTTO PRODUCTIONS (ART 1005) / ITALY ] 121.62 BPM
  208. 2019-07-18 16:42:55 MR. MASTER - A DOG IN THE NIGHT [ 1983, HOUSE OF MUSIC RECORDS (HM 1002) / ITALY ] 120.98 BPM
  209. 2019-07-18 16:38:40 CITY-O' - ROSE OF TOKYO [ 1984, DISCOMAGIC RECORDS (MIX 165) / ITALY ] 120.98 BPM
  210. 2019-07-18 16:35:13 BOBBY GAME - BABY BIG MAN [ 1983, BEST RECORDS (BEST 12016) / ITALY ] 120.03 BPM
  211. 2019-07-18 16:27:53 PLASTIC MODE - BAJA IMPERIAL [ 1985, DISCOMAGIC RECORDS (MIX 236) / ITALY ] 120.03 BPM
  212. 2019-07-18 16:24:13 RIS - LOVE 'N MUSIC [ 1983, PROTO RECORDS (NSMIX 2006) / ITALY ] 120.03 BPM
  213. 2019-07-18 16:21:08 VARTAN - NEVER FOREVER FOR LOVE [ 1985, MARKET RECORDS (MK 002) / ITALY ] 119.66 BPM
  214. 2019-07-18 16:17:59 MAX DELOS - SEX TO TAKE [ 1988, VIDEOSTAR RECORDS (VS 000177) / ITALY ] 119.66 BPM
  215. 2019-07-18 16:15:04 KEN MARTAL - I CAN'T LEAVE YOU [ 1986, CARRERE RECORDS (8631) / FRANCE ] 119.66 BPM
  216. 2019-07-18 16:11:04 G & M - DON'T LET YOU DOWN [ 1988, TIME RECORDS (TRD 1064) / ITALY ] 119.66 BPM
  217. 2019-07-18 16:05:39 MIKE MAREEN - HERE I AM [ 1985, NIGHT'N DAY RECORDS (30.1030) / GERMANY ] 119.2 BPM
  218. 2019-07-18 16:02:04 ANGIE - CLOUDS [ 1984, TANGA LABEL (TL 009) / ITALY ] 119.2 BPM
  219. 2019-07-18 15:57:16 WILLIAM KING - ROBIN HOOD [ 1986, MODERN MUSIC PRODUCTIONS (MDN 1002) / ITALY ] 119.2 BPM
  220. 2019-07-18 15:52:50 CRISTIANA - SEX OR SEX [ 1987, RAM PRODUCTIONS (RAM 12.01.73) / ITALY ] 119.2 BPM
  221. 2019-07-18 15:50:21 FABBRICA DI STELLE - NIGHT'S ANGELS [ 1984, BLITZ RECORDS (BZ 115) / ITALY ] 119.2 BPM
  222. 2019-07-18 15:45:15 MDMC - HOW ABOUT IT [ 1984, JUMBO RECORDS (JU 12017) / ITALY ] 118.47 BPM
  223. 2019-07-18 15:41:36 KEN LASZLO - TONIGHT (REMIX) [ 1986, MEMORY RECORDS (MEMIX 038) / ITALY ] 118.47 BPM
  224. 2019-07-18 15:35:27 D. CARRED - YOU'LL BE A WINNER [ 1985, DEM RECORDS (DMR 1201) / ITALY ] 118.47 BPM
  225. 2019-07-18 15:32:53 CAMOMILLA - BUENAS NOCHES [ 1984, DISCO MAGIC RECORDS (MIX 200) / ITALY ] 118.47 BPM
  226. 2019-07-18 15:30:11 SOLID STRANGERS - GIMME THE LIGHT [ 1987, ZYX RECORDS (ZYX 5666) / GERMANY ] 118.47 BPM
  227. 2019-07-18 15:25:58 BORIS PARKER - THINKIN' OF YOU (HA! UHU! UHU! HA! HA!) [ 1983, VBDS RECORDS (VBDS 01083R) / ITALY ] 118.95 BPM
  228. 2019-07-18 15:22:36 FOCKEWULF 190 - GITANO [ 1984, F1 TEAM RECORDS (DM 9319) / ITALY ] 118.95 BPM
  229. 2019-07-18 15:18:14 VICTORIA - TIME IS OVER [ 1987, HIT RECORDS (H 30.265) / ITALY ] 118.95 BPM
  230. 2019-07-18 15:16:05 ESAVU - SIA-SIOÙ (BREAKIN' UP) [ 1983, REAL SOUND RECORDS (RS 1007) / ITALY ] 118.95 BPM
  231. 2019-07-18 15:12:00 THE BOY - SOLDIERS OF LOVE [ 1987, ARS RECORDS (ARS 3704) / BELGIUM ] 118.95 BPM
  232. 2019-07-18 15:06:51 PHIL SUN - DANCING ON THE BEACH [ 1985, GALA INTERNATIONAL (GLX 003) / ITALY ] 118.28 BPM
  233. 2019-07-18 15:04:01 FUN FUN - HAPPY STATION [ 1983, X-ENERGY RECORDS (X-12003) / ITALY ] 118.32 BPM
  234. 2019-07-18 15:01:42 THE FLASH BACK BAND - FLASH [ 1983, IL DISCOTTO PRODUCTIONS (ART 1010) / ITALY ] 118.32 BPM
  235. 2019-07-18 14:57:24 MAGIC-A - HEAVEN IS A SECRET [ 1986, RAINBOW RECORDS (R 1201) / ITALY ] 118.32 BPM
  236. 2019-07-18 14:54:16 P. LION - REGGAE RADIO [ 1984, DISCOMAGIC RECORDS (LP 191) / ITALY ] 118.32 BPM
  237. 2019-07-18 14:50:58 HBO - COME WITH ME [ 1986, SPEED RECORDS (SPR 12022) / ITALY ] 118.32 BPM
  238. 2019-07-18 14:45:07 STEVE CLARK - YOU CAN SAY TO EVERYBODY [ 1988, MAX MUSIC (MAX 308) / SPAIN ] 118.32 BPM
  239. 2019-07-18 14:41:46 THE FLIRTS - HELPLESS [ 1984, TELEPHONE RECORDS (TE 3) / US ] 117.78 BPM
  240. 2019-07-18 14:36:27 BB & BAND - ALL NIGHT LONG [ 1987, LIMITED EDITION RECORDS (LE 016) / ITALY ] 116.91 BPM
  241. 2019-07-18 14:32:05 ROGER MENO - I FIND THE WAY [ 1985, ZYX RECORDS (ZYX 5252) / GERMANY ] 117.7 BPM
  242. 2019-07-18 14:29:05 P. LION - RUBBER GAME [ 1984, DISCOMAGIC RECORDS (LP 191) / ITALY ] 118.35 BPM
  243. 2019-07-18 14:25:01 RANKATI - OH CHERIE [ 1989, MANY RECORDS (MN 609) / ITALY ] 118.35 BPM
  244. 2019-07-18 14:20:33 T. ARK - HOW OLD ARE YOU [ 1988, KBC RECORDS (1003) / GERMANY ] 118.35 BPM
  245. 2019-07-18 14:17:51 STAGE - DREAMIN' ON THE TOP [ 1983, DAILY MUSIC (DLM 31521) / ITALY ] 118.35 BPM
  246. 2019-07-18 14:13:56 MECCANO - ACTIVATE MY HEART [ 1987, KEEPON MUSIK (KM 838514) / ITALY ] 118.35 BPM
  247. 2019-07-18 14:09:35 DEL FARO - BANDIERA LA PLAYA DEL SOL [ 1987, ZYX RECORDS (ZYX 5761) / GERMANY ] 118.35 BPM
  248. 2019-07-18 14:05:49 TOO TOO - LET'S ALL PARTY [ 1984, CRUISIN' RECORDS (CRN 719) / ITALY ] 118.86 BPM
  249. 2019-07-18 14:01:17 KELLY BROWN - ONLY YOU CAN [ 1985, KOCH RECORDS INTERNATIONAL (150.162) / AUSTRIA ] 118.86 BPM
  250. 2019-07-18 13:58:03 SHARON - I THINK ABOUT YOU [ 1987, KEEPON MUSIK (KM 838515) / ITALY ] 118.86 BPM
  251. 2019-07-18 13:53:51 ALEXANDER ROBOTNICK - PROBLÈMES D'AMOUR [ 1983, FUZZ DANCE RECORDS (ZZ 20 003) / ITALY ] 118.86 BPM
  252. 2019-07-18 13:50:45 VICIO LATINO - ¿QUÉ ME PASA, QUÉ ME PASA? [ 1983, EPIC RECORDS (EPC 12.3966) / SPAIN ] 118.86 BPM
  253. 2019-07-18 13:48:00 FAST KARMA - NOBODY HELPS [ 1985, DISCOMAGIC RECORDS (MIX 270) / ITALY ] 118.71 BPM
  254. 2019-07-18 13:43:31 TOM HOOKER - LOOKING FOR LOVE [ 1986, BABY RECORDS (BR 54071) / ITALY ] 119.63 BPM
  255. 2019-07-18 13:40:57 HIPNOSIS - ARGONAUTS [ 1984, MEMORY RECORDS (MEMIX 023) / ITALY ] 119.63 BPM
  256. 2019-07-18 13:37:44 RYGAR - SPACERAIDERS [ 1989, MADE UP RECORDS (MUR 812) / NETHERLANDS ] 119.64 BPM
  257. 2019-07-18 13:34:04 RYVON - UP AND DOWN [ 1986, OUT RECORDS (OUT 3063) / ITALY ] 119.64 BPM
  258. 2019-07-18 13:29:01 TOP TOP - VAMOS A LA CAMA [ 1988, ON THE BEAT RECORDS (OTB 1358-6) / FRANCE ] 119.67 BPM
  259. 2019-07-18 13:26:32 2 FOR TEA - DYNAMITE [ 1986, JUMP & SHOUT RECORDS (JS 12279) / BELGIUM ] 120.03 BPM
  260. 2019-07-18 13:21:38 JOE MC ROY & THE SALOON' GIRLS BAND - LITTLE COW-BOY MEDLEY WITH RAP-ON [ 1987, I.D.D. ONE (IDD Z03) / ITALY ] 119.16 BPM
  261. 2019-07-18 13:17:58 LA BIONDA - ONE FOR YOU, ONE FOR ME [ 1978, BABY RECORDS (DISCOMIX 5) / ITALY ] 119.16 BPM
  262. 2019-07-18 13:12:58 FONTANELLI - MARILYN... I LOVE YOU [ 1986, ACADEMY RECORDS (ACD 8513) / ITALY ] 119.16 BPM
  263. 2019-07-18 13:09:18 FRANZ & FRANKIE - LET ME GO [ 1986, DISCOS GAMES RECORDS (DG 1211) / SPAIN ] 119.16 BPM
  264. 2019-07-18 13:04:02 CHI CHI LIAH - PROUD MARY (REMIX) [ 1983, X-ENERGY RECORDS (X-12004) / ITALY ] 118.59 BPM
  265. 2019-07-18 13:00:32 FLY OUT - TAKE YOUR TIME [ 1985, OUT RECORDS (OUT 3035) / ITALY ] 118.59 BPM
  266. 2019-07-18 12:57:07 FUNHOUSE - DANCIN' EASY [ 1988, FREAKY RECORDS (FR 12-1001) / NETHERLANDS ] 119.29 BPM
  267. 2019-07-18 12:52:02 BETWEEN THE SHEETS - LATE NIGHT RADIO [ 1983, BOOTLEGS RECORDS (281154/D) / ITALY ] 119.47 BPM
  268. 2019-07-18 12:49:37 KIWI & TESS - GIVE YOUR HEART [ 1989, ICEBERG RECORDS (ICE M 32) / DENMARK ] 119.47 BPM
  269. 2019-07-18 12:45:02 NITE CLUB - UP AND DOWN [ 1987, IBIZA RECORDS (IBZ 440) / ITALY ] 119.47 BPM
  270. 2019-07-18 12:41:18 PREMIO NOBEL - WHITE FLAME [ 1987, ITALIAN RECORDS (14 2021546) / ITALY ] 119.97 BPM
  271. 2019-07-18 12:35:53 VIVIEN VEE - BLUE DISEASE [ 1983, BANANA RECORDS (ZBAN 7310) / ITALY ] 120.72 BPM
  272. 2019-07-18 12:33:20 BABY'S GANG - HAPPY SONG [ 1983, MEMORY RECORDS (MEMIX 011) / ITALY ] 120.72 BPM
  273. 2019-07-18 12:29:54 JOE MARAN & THE D.J. GIRLS - KING OF THE RADIO [ 1983, NEW YORK PRODUCTIONS (NY 0183) / ITALY ] 120.79 BPM
  274. 2019-07-18 12:27:39 JOHN MENDES - LOVE IS THE REASON [ 1985, BREAK RECORDS (1851050) / NETHERLANDS ] 120.99 BPM
  275. 2019-07-18 12:24:43 GAZEBO - LOVE IN YOUR EYES [ 1983, BABY RECORDS (BR 54027) / ITALY ] 120.99 BPM
  276. 2019-07-18 12:22:16 CAPRICORN - I NEED LOVE [ 1982, DELIRIUM RECORDS (DLM M25970) / ITALY ] 120 BPM
  277. 2019-07-18 12:17:36 ROBERT TOMASI - SAD IMAGES [ 1986, DIGITAL RECORDS (DR 8605) / ITALY ] 120 BPM
  278. 2019-07-18 12:14:03 BILL GOINS - LONE RIDER [ 1985, MARKET RECORDS (MK 001) / ITALY ] 120 BPM
  279. 2019-07-18 12:09:07 ANGIE CARE - YOUR MIND [ 1984, MERAK MUSIC (MKX 800) / ITALY ] 120 BPM
  280. 2019-07-18 12:04:18 MEX - CALLING YOU [ 1984, DISCOMAGIC RECORDS (MIX 220) / ITALY ] 120.15 BPM
  281. 2019-07-18 12:00:16 TOM HOOKER - REAL MEN [ 1985, MERAK MUSIC (MKX 410) / ITALY ] 120.15 BPM
  282. 2019-07-18 11:54:44 ANNIE ANNER - ROBOTMAN [ 1986, SALUT PRODUCTIONS (SPM 8602) / SWEDEN ] 120.15 BPM
  283. 2019-07-18 11:49:46 MOSES - WE JUST (NEW MIX) [ 1985, REVOLUTION RECORDS (REV 111) / ITALY ] 120.15 BPM
  284. 2019-07-18 11:47:23 NATASHA KING - ON ICE [ 1984, CGD RECORDS (INT 14153) / ITALY ] 120.15 BPM
  285. 2019-07-18 11:44:10 AL MUSCI - LOVE TONIGHT [ 1985, DURIUM RECORDS (DE X 13076) / ITALY ] 119.59 BPM
  286. 2019-07-18 11:39:41 PETER AND THE WOLF - PETER AND THE WOLF [ 1986, AMERICAN DISCO (AMD 020) / ITALY ] 119.59 BPM
  287. 2019-07-18 11:35:49 RIKY MALTESE - RAINY DAY [ 1987, TIME RECORDS (TRD 1059) / ITALY ] 119.59 BPM
  288. 2019-07-18 11:30:58 MY MINE - HYPNOTIC TANGO [ 1983, PROGRESS RECORDS (CIV 47501) / ITALY ] 118.86 BPM
  289. 2019-07-18 11:26:05 SAN GIOVANNI BASSISTA - DON'T GO [ 1985, FUZZ DANCE RECORDS (ZZ 20 017) / ITALY ] 117.92 BPM
  290. 2019-07-18 11:21:28 KOTO - JABDAH (CHINESE MIX) [ 1989, ZYX RECORDS (ZYX 20160-1) / GERMANY ] 117.92 BPM
  291. 2019-07-18 11:17:56 MARK TURNER & LOREN GOODMAN - LIVE YOUR LIFE [ 1984, GETTON BOX RECORDS (VR 384) / ITALY ] 117.71 BPM
  292. 2019-07-18 11:14:53 DEN HARROW - BROKEN RADIO (RAZORMAID MIX) [ 1985, TLO RECORDS (TLO 9111) / ITALY ] 117.71 BPM
  293. 2019-07-18 11:11:36 JANICKE - SAY SAY SAY [ 1987, MERAK MUSIC (MKX 630) / ITALY ] 117.27 BPM
  294. 2019-07-18 11:07:39 WLADY - CARARUMBA CUMBACERO [ 1986, PANARECORDS (DM 9329) / ITALY ] 117.27 BPM
  295. 2019-07-18 11:05:29 THANGO - DANCING IN THE MOONLIGHT [ 1989, EMI RECORDS (EMI 14 2036466) / ITALY ] 117.98 BPM
  296. 2019-07-18 10:57:39 BLUE - EVERYBODY NEEDS SOMEBODY [ 1986, X-ENERGY RECORDS (X-12017) / ITALY ] 117.5 BPM
  297. 2019-07-18 10:54:31 MERRY GO ROUND - MY REASON FOR LIFE [ 1985, ATLANTIDE MUSIC (AMIX 5005) / ITALY ] 117.64 BPM
  298. 2019-07-18 10:51:10 TOMMY - BEING TOGETHER [ 1988, EVANS & FISHER PRODUCTIONS (EF 080) / ITALY ] 116.91 BPM
  299. 2019-07-18 10:47:24 UPPERCUT - BLACK JACK [ 1986, AIR MUSIC (IB 0602) / ITALY ] 116.91 BPM
  300. 2019-07-18 10:44:00 TOM DOLLAR - LOVE IS SOMETHING [ 1987, MEDIA RECORDS (MR 518) / ITALY ] 117.15 BPM
  301. 2019-07-18 10:40:17 C.O.D. - IN THE BOTTLE [ 1983, EMERGENCY RECORDS (EMDS 6535) / US ] 117.15 BPM
  302. 2019-07-18 10:35:41 KRISS - HEY MISTER MISTER [ 1988, LOMBARDONI PUBLISHINGS (LMB 034) / ITALY ] 116.25 BPM
  303. 2019-07-18 10:31:41 SPAGNA - I WANNA BE YOUR WIFE [ 1988, CBS RECORDS (CBS 653068 3) / FRANCE ] 116.73 BPM
  304. 2019-07-18 10:28:23 A. KEANE - RACING THE SUN [ 1986, DISCOCLUB RECORDS (CLUB 3131) / ITALY ] 116.73 BPM
  305. 2019-07-18 10:24:53 F. MONIERI - COMING UP MEDLEY WALK AWAY [ 1984, DISCO MAGIC RECORDS (MIX 158) / ITALY ] 116.73 BPM
  306. 2019-07-18 10:21:56 MIRAGE - WOMAN [ 1983, IL DISCOTTO PRODUCTIONS (DS 001) / ITALY ] 116.31 BPM
  307. 2019-07-18 10:18:32 JIMMY MC FOY - HI GIRL [ 1985, KEEPON MUSIK (KM 83851) / ITALY ] 116.52 BPM
  308. 2019-07-18 10:14:27 AVENIDA 29 - IT'S PIZZA TIME [ 1984, THICK RECORDS (TK 005) / ITALY ] 116.61 BPM
  309. 2019-07-18 10:09:06 BB & BAND - ALL NIGHT LONG [ 1987, LIMITED EDITION RECORDS (LE 016) / ITALY ] 116.91 BPM
  310. 2019-07-18 10:03:34 ALAN III - MY LADY [ 1986, MEDIA RECORDS (MDR 502) / ITALY ] 116.84 BPM
  311. 2019-07-18 10:01:00 PASCALIN - HOW DID YOU COME INTO MY LIFE [ 1986, PANDA MUSIC RECORDS (MS 871) / ITALY ] 117.52 BPM
  312. 2019-07-18 09:59:27 MONTE KRISTO - THE GIRL OF LUCIFER [ 1985, IN THE MIX (601 857) / FRANCE ] 117.52 BPM
  313. 2019-07-18 09:55:54 JAMES KAHN - ONE MILLION STARS [ 1984, MUSIX RECORDS (MX 9402) / ITALY ] 117.94 BPM
  314. 2019-07-18 09:51:31 TOM HOOKER - ATLANTIS [ 1987, BABY RECORDS (BR 54086) / ITALY ] 118.02 BPM
  315. 2019-07-18 09:48:48 SAHARA - SHINING [ 1985, MANY RECORDS (MN 551) / ITALY ] 118.02 BPM
  316. 2019-07-18 09:45:21 NEW YORK RAPPERS - GET DOWN ON IT RAP [ 1987, RADIORAMA PRODUCTIONS (RA 07/87) / ITALY ] 118.02 BPM
  317. 2019-07-18 09:42:21 FRANCIS LOWE - BACK TO ZERO [ 1984, MANY RECORDS (MN 527) / ITALY ] 118.02 BPM
  318. 2019-07-18 09:39:31 BAHAMAS BAND - SUMMER SHOW [ 1983, SPICE 7 RECORDS (SP 31526) / ITALY ] 117.81 BPM
  319. 2019-07-18 09:35:19 ALBERT ONE - HOPES AND DREAMS (REMIX) [ 1987, ONE RECORDS (ONE 005 MIX) / ITALY ] 118.55 BPM
  320. 2019-07-18 09:31:35 RYVON - UP AND DOWN [ 1986, OUT RECORDS (OUT 3063) / ITALY ] 117.72 BPM
  321. 2019-07-18 09:28:04 LAURIE - WHEEL OF LOVE [ 1987, MEMORY RECORDS (MEMIX 057) / ITALY ] 117.72 BPM
  322. 2019-07-18 09:23:54 DRAJAN - HIPPODROME'S DREAM [ 1987, SENSATION RECORDS (SNS 8060) / ITALY ] 117.72 BPM
  323. 2019-07-18 09:19:01 LIME - GOLD DIGGER [ 1987, MATRA RECORDS (SPEC 1295) / CANADA ] 117.54 BPM
  324. 2019-07-18 09:12:53 GARBO - PERESTROIKA [ 1988, IMP RECORDS (611 019) / GERMANY ] 117.03 BPM
  325. 2019-07-18 09:09:35 SCOTCH - TAKE ME UP [ 1985, AMERICAN DISCO (AMD 011) / ITALY ] 117.03 BPM
  326. 2019-07-18 09:04:31 FONTANELLI - MARILYN... I LOVE YOU [ 1986, ACADEMY RECORDS (ACD 8513) / ITALY ] 117.75 BPM
  327. 2019-07-18 09:01:40 JOY PETERS - DON'T LOOSE YOUR HEART TONIGHT [ 1986, ZYX RECORDS (ZYX 5462) / GERMANY ] 118.44 BPM
  328. 2019-07-18 08:59:15 KIWI & TESS - GIVE YOUR HEART [ 1989, ICEBERG RECORDS (ICE M 32) / DENMARK ] 119.14 BPM
  329. 2019-07-18 08:55:05 ITALIAN BOYS - TAKE MY LOVE [ 1991, BMS RECORDS (BMS 338) / ITALY ] 119.14 BPM
  330. 2019-07-18 08:50:06 THE FLIRTS - CALLING ALL BOYS (SPECIAL REMIX) [ 1982, UNIDISC RECORDS (UNI 1077) / CANADA ] 118.74 BPM
  331. 2019-07-18 08:47:21 NICK JOHN - ALL I WANT IS YOU [ 1987, MEGATONE RECORDS (MT 151) / US ] 118.74 BPM
  332. 2019-07-18 08:42:38 ROBERT TOMASI - SAD IMAGES [ 1986, DIGITAL RECORDS (DR 8605) / ITALY ] 118.61 BPM
  333. 2019-07-18 08:39:38 JAGO - I'M GOING TO GO [ 1983, FULL TIME RECORDS (FTM 31533) / ITALY ] 119.31 BPM
  334. 2019-07-18 08:35:54 EXECUTIVE - EXECUTIVE (DANCE) [ 1986, L'EXECUTIVE CLUB RECORDS (1001) / ITALY ] 119.31 BPM
  335. 2019-07-18 08:32:40 JET SET - LOVE DANCE [ 1984, GOOD VIBES RECORDS (PM 120011) / ITALY ] 119.5 BPM
  336. 2019-07-18 08:30:52 TIMERIDER - COCOON [ 1985, ZYX RECORDS (ZYX 5371) / GERMANY ] 119.5 BPM
  337. 2019-07-18 08:26:23 KELLY BROWN - ONLY YOU CAN [ 1985, KOCH RECORDS INTERNATIONAL (150.162) / AUSTRIA ] 119.48 BPM
  338. 2019-07-18 08:21:49 PLASTIC MODE - BAJA IMPERIAL (U.S. REMIX) [ 1985, DISCOMAGIC RECORDS (MIX 260) / ITALY ] 119.48 BPM
  339. 2019-07-18 08:19:19 ALEX MOLO - LOOK AT ME [ 1986, RAINBOW RECORDS (NS 02) / ITALY ] 119.48 BPM
  340. 2019-07-18 08:15:17 MOULIN ROUGE - BABY I MISS YOU [ 1989, EXPANDED MUSIC (EX 54Y) / ITALY ] 119.67 BPM
  341. 2019-07-18 08:10:13 TOP TOP - VAMOS A LA CAMA [ 1988, ON THE BEAT RECORDS (OTB 1358-6) / FRANCE ] 119.67 BPM
  342. 2019-07-18 08:06:45 VICK TRICK - I WANT SOMEONE TO LOVE [ 1984, S.P.Q.R. RECORDS (SPQR 1124) / ITALY ] 120.13 BPM
  343. 2019-07-18 08:02:01 MEX - CALLING YOU [ 1984, DISCOMAGIC RECORDS (MIX 220) / ITALY ] 119.96 BPM
  344. 2019-07-18 07:58:04 SCOTCH - LOVING IS EASY [ 1984, MANY RECORDS (MN 64 2402741) / ITALY ] 119.96 BPM
  345. 2019-07-18 07:55:07 FLASHSISTEM - LISTEN [ 1987, DISCO NRG (DE 001-87) / ITALY ] 119.96 BPM
  346. 2019-07-18 07:51:07 JOEY MOON - ANGELICA [ 1983, HARMONY MUSIC (HY 003) / ITALY ] 119.96 BPM
  347. 2019-07-18 07:47:47 FOCKEWULF 190 - GITANO [ 1984, F1 TEAM RECORDS (DM 9319) / ITALY ] 119.96 BPM
  348. 2019-07-18 07:43:45 THE BOY - SOLDIERS OF LOVE [ 1987, ARS RECORDS (ARS 3704) / BELGIUM ] 120.31 BPM
  349. 2019-07-18 07:40:09 BLUVOX - HOLD ON [ 1986, OUT RECORDS (OUT 3070) / ITALY ] 120.31 BPM
  350. 2019-07-18 07:35:46 HÉLICON - YOU ... SEE [ 1983, CRASH RECORDS (DS 007) / ITALY ] 120.31 BPM
  351. 2019-07-18 07:32:26 J. DOLPHIN - ALL THAT I WANT IS TO SAY [ 1987, BMS RECORDS (BMS 324) / ITALY ] 119.97 BPM
  352. 2019-07-18 07:29:30 ZETA - WONDRIN' WHY [ 1985, CRUISIN' RECORDS (CRN 722) / ITALY ] 119.72 BPM
  353. 2019-07-18 07:25:05 RYN'O - GIGOLO' [ 1984, WMB PRODUCTION (WMB 001) / ITALY ] 120.72 BPM
  354. 2019-07-18 07:20:19 VLADY SHERKANE - CHA CHA CHA FOR YOU [ 1986, CARRERE RECORDS (8679) / FRANCE ] 120.72 BPM
  355. 2019-07-18 07:17:17 LIZA MANCINI - FOLLOW ME FOLLOW ME [ 1987, GREEN LINE RECORDS (GLX 1003) / ITALY ] 121.4 BPM
  356. 2019-07-18 07:12:32 TIME - SELLING SONG [ 1984, FLY MUSIC (TPF 006/84) / ITALY ] 121.4 BPM
  357. 2019-07-18 07:09:30 OSCAR - IT'S MY LIFE [ 1988, RADIORAMA PRODUCTIONS (RA 88.07) / ITALY ] 121.4 BPM
  358. 2019-07-18 07:05:31 VICIO LATINO - ¿SABES QUE HORA ES? [ 1984, EPIC RECORDS (EPC A 12.4425) / SPAIN ] 121.4 BPM
  359. 2019-07-18 07:02:30 BRYVAN STAGE - WAYOUT! [ 1984, THICK RECORDS (TK 003) / ITALY ] 120.42 BPM
  360. 2019-07-18 06:58:45 ANDREA - THAT'S THE WAY MY LOVE IS [ 1991, FCF RECORDS (FCF 28) / ITALY ] 120.42 BPM
  361. 2019-07-18 06:55:07 STAGE - REAL [ 1985, FULL TIME RECORDS (FTM 31570) / ITALY ] 120.42 BPM
  362. 2019-07-18 06:50:58 BRIAN ICE - TOKYO [ 1986, MEMORY RECORDS (MEMIX 041) / ITALY ] 119.63 BPM
  363. 2019-07-18 06:49:22 KIRLIAN CAMERA - EDGES [ 1983, A.T.G. RECORDS (KC 900) / ITALY ] 119.63 BPM
  364. 2019-07-18 06:45:50 ALAN BARRY - COME ON [ 1986, TIME RECORDS (TRD 1021) / ITALY ] 119.75 BPM
  365. 2019-07-18 06:42:05 PAUL REIN - COMMUNICATE [ 1987, INJECTION DISCO DANCE LABEL (234.798) / NETHERLANDS ] 119.75 BPM
  366. 2019-07-18 06:37:36 CHIP CHIP - EVERYTHING YOU LOVE [ 1988, FLEA RECORDS (FL 8414) / ITALY ] 119.57 BPM
  367. 2019-07-18 06:33:50 MIKE CANNON - GOIN' CRAZY [ 1985, MEMORY RECORDS (MEMIX 034) / ITALY ] 119.57 BPM
  368. 2019-07-18 06:30:34 SHE MALE - I WANNA DISCOVER YOU [ 1984, OUT RECORDS (OUT 3022) / ITALY ] 119.57 BPM
  369. 2019-07-18 06:27:08 K.B. CAPS - DO YOU REALLY NEED ME [ 1986, ZYX RECORDS (ZYX 5516) / GERMANY ] 119.79 BPM
  370. 2019-07-18 06:23:08 DIGITAL MIND - COUNTDOWN [ 1985, SOUND OF ITALY (MIX 004) / ITALY ] 119.79 BPM
  371. 2019-07-18 06:17:11 EDELWEISS - BRING ME EDELWEISS [ 1988, GIG RECORDS (247 543-0) / AUSTRIA ] 119.79 BPM
  372. 2019-07-18 06:12:49 TOMMY BOW - DANCE TONIGHT [ 1983, DISCOMAGIC RECORDS (MIX 124) / ITALY ] 119.79 BPM
  373. 2019-07-18 06:08:25 RAY FOSTER - BE MY GIRL [ 1986, CBS RECORDS (CBS 6502086) / ITALY ] 119.72 BPM
  374. 2019-07-18 06:03:44 TAFFY - I LOVE MY RADIO (USA REMIX) [ 1986, IBIZA RECORDS (IBZ 422) / ITALY ] 119.6 BPM
  375. 2019-07-18 06:00:13 C-BAND - MIDNIGHT MAN [ 1984, MERAK MUSIC (MKX 900) / ITALY ] 120.24 BPM
  376. 2019-07-18 05:57:56 ROSS CONTI - GET READY [ 1987, GREEN PRODUCTION (GP 19-22) / ITALY ] 120.04 BPM
  377. 2019-07-18 05:54:17 FRANZ & FRANKIE - LET ME GO [ 1986, DISCOS GAMES RECORDS (DG 1211) / SPAIN ] 119.16 BPM
  378. 2019-07-18 05:50:41 ANGIE - CLOUDS [ 1984, TANGA LABEL (TL 009) / ITALY ] 119.31 BPM
  379. 2019-07-18 05:46:50 JOE MARINO - THE FORCE [ 1984, DISCO FAMILY RECORDS (ITF 329) / ITALY ] 119.31 BPM
  380. 2019-07-18 05:42:46 SUSAN STEVENS - GET TO YOU [ 1983, TOJO RECORDS (T12-1015) / CANADA ] 119.84 BPM
  381. 2019-07-18 05:37:51 ANGIE CARE - YOUR MIND [ 1984, MERAK MUSIC (MKX 800) / ITALY ] 120 BPM
  382. 2019-07-18 05:34:06 TOO TOO - LET'S ALL PARTY [ 1984, CRUISIN' RECORDS (CRN 719) / ITALY ] 119.21 BPM
  383. 2019-07-18 05:31:42 KATZANIWA - FUTURE TRIBOO [ 1984, DEEJAY'S GANG RECORDS (AB MIX 18) / ITALY ] 119.21 BPM
  384. 2019-07-18 05:27:22 TOMMY KELWIN - TOKYO NIGHTS [ 1986, SKIZZO RECORDS (MIX SK 1) / ITALY ] 119.75 BPM
  385. 2019-07-18 05:24:01 TOM DOLLAR - LOVE IS SOMETHING [ 1987, MEDIA RECORDS (MR 518) / ITALY ] 119.75 BPM
  386. 2019-07-18 05:20:49 TRILOGY - NOT LOVE [ 1982, IL DISCOTTO PRODUCTIONS (ART 1005) / ITALY ] 119.75 BPM
  387. 2019-07-18 05:16:40 BRIAN ICE - TOKYO [ 1986, MEMORY RECORDS (MEMIX 041) / ITALY ] 119.75 BPM
  388. 2019-07-18 05:11:57 MORGANA - READY FOR LOVE [ 1987, MANY RECORDS (MN 576) / ITALY ] 119.75 BPM
  389. 2019-07-18 05:09:28 CAPRICORN - I NEED LOVE [ 1982, DELIRIUM RECORDS (DLM M25970) / ITALY ] 118.78 BPM
  390. 2019-07-18 05:06:14 GEE RAMPLY - RADIO STYLE [ 1984, FDT RECORDS (FDT 006) / ITALY ] 119.69 BPM
  391. 2019-07-18 05:01:47 STEVE MARTIN - OH WHAT A NIGHT [ 1983, DISCOMAGIC RECORDS (MIX 134) / ITALY ] 119.69 BPM
  392. 2019-07-18 04:57:53 ARGENTINA - BABY DON'T YOU BREAK (MY HEART) [ 1986, MEDIA RECORDS (MR 507) / ITALY ] 119.69 BPM
  393. 2019-07-18 04:53:50 HOT & COLD - DON'T TALK ABOUT IT [ 1988, LOMBARDONI PUBLISHINGS (LMB 032) / ITALY ] 120.24 BPM
  394. 2019-07-18 04:49:48 IMAGE - HOT STUFF [ 1984, MEMORY RECORDS (MEMIX 025) / ITALY ] 120.24 BPM
  395. 2019-07-18 04:45:00 MEX - CALLING YOU [ 1984, DISCOMAGIC RECORDS (MIX 220) / ITALY ] 120.24 BPM
  396. 2019-07-18 04:41:54 VIVIEN VEE - CROSS MY HEART [ 1989, X-ENERGY RECORDS (X-12039) / ITALY ] 120.24 BPM
  397. 2019-07-18 04:38:23 BOBBY GAME - BABY BIG MAN [ 1983, BEST RECORDS (BEST 12016) / ITALY ] 119.62 BPM
  398. 2019-07-18 04:35:47 BABY'S GANG - HAPPY SONG [ 1983, MEMORY RECORDS (MEMIX 011) / ITALY ] 119.62 BPM
  399. 2019-07-18 04:32:42 TINA GABRIEL - IF YOU SAY YOU LOVE ME [ 1988, MEMORY RECORDS (MEMIX 081) / ITALY ] 119.62 BPM
  400. 2019-07-18 04:29:54 PERESTROIKA POWER - ANIMAL FARM [ 1989, STREETHEAT RECORDS (STH 12318) / NETHERLANDS ] 119.62 BPM
  401. 2019-07-18 04:26:24 LARABELL - UP AND DOWN [ 1987, DISCOMAGIC RECORDS (MIX 313) / ITALY ] 119.62 BPM
  402. 2019-07-18 04:24:05 THE FLASH BACK BAND - FLASH [ 1983, IL DISCOTTO PRODUCTIONS (ART 1010) / ITALY ] 119.58 BPM
  403. 2019-07-18 04:20:45 JESSICA - CHINESE MAGIC [ 1987, BLOW UP RECORDS (INT 125.582) / GERMANY ] 119.63 BPM
  404. 2019-07-18 04:18:12 HIPNOSIS - ARGONAUTS [ 1984, MEMORY RECORDS (MEMIX 023) / ITALY ] 119.63 BPM
  405. 2019-07-18 04:13:22 THE MIDNIGHT'S MOSKOW - TOVARISC GORBACIOV [ 1987, MERAK MUSIC (MKX 930) / ITALY ] 119.28 BPM
  406. 2019-07-18 04:08:10 CARRARA - DISCO KING (LONDON REMIX) [ 1987, KEEPON MUSIC (KM 838514) / ITALY ] 119.28 BPM
  407. 2019-07-18 04:06:39 MONTE KRISTO - THE GIRL OF LUCIFER [ 1985, IN THE MIX (601 857) / FRANCE ] 119.28 BPM
  408. 2019-07-18 04:01:25 CHI CHI LIAH - PROUD MARY (REMIX) [ 1983, X-ENERGY RECORDS (X-12004) / ITALY ] 119.28 BPM
  409. 2019-07-18 03:56:34 LIME - GOLD DIGGER [ 1987, MATRA RECORDS (SPEC 1295) / CANADA ] 119.28 BPM
  410. 2019-07-18 03:53:21 ROCCO GRANATA & THE CARNATIONS - MARINA ('89 VERSION) [ 1989, CARDINAL RECORDS (CM 1959) / BELGIUM ] 119.28 BPM
  411. 2019-07-18 03:50:29 DANCE DEPARTMENT - PARADISE [ 1986, ZYX RECORDS (ZYX 5416) / GERMANY ] 119.28 BPM
  412. 2019-07-18 03:45:59 KELLY BROWN - ONLY YOU CAN [ 1985, KOCH RECORDS INTERNATIONAL (150.162) / AUSTRIA ] 119.28 BPM
  413. 2019-07-18 03:42:20 KEN LASZLO - TONIGHT (REMIX) [ 1986, MEMORY RECORDS (MEMIX 038) / ITALY ] 119.28 BPM
  414. 2019-07-18 03:36:43 SAMOA PARK - MONKEY LATINO [ 1983, ZANZA RECORDS (ZR 0136) / ITALY ] 119.28 BPM
  415. 2019-07-18 03:33:36 QUINTALINO BAND - MIGUEL SON MI [ TOP LINE PRODUCTIONS (RP 1201) / ITALY ] 119.28 BPM
  416. 2019-07-18 03:28:46 VLADY SHERKANE - CHA CHA CHA FOR YOU [ 1986, CARRERE RECORDS (8679) / FRANCE ] 119.28 BPM
  417. 2019-07-18 03:24:36 LARABELL - AH LAMOUR [ 1988, DISCOMAGIC RECORDS (MIX 324) / ITALY ] 119.28 BPM
  418. 2019-07-18 03:20:36 MISTERY - YOU HAVE THE WAY [ 1989, RADIORAMA PRODUCTIONS (RA 89.21) / ITALY ] 119.28 BPM
  419. 2019-07-18 03:17:25 DEBLANC - MON AMOUR [ 1987, ITALIAN RECORDS (EXIT M 533) / ITALY ] 119.28 BPM
  420. 2019-07-18 03:11:30 JANET D'EON - ANYTHING YOU LIKE [ 1988, POWER RECORDS (PXD 105) / CANADA ] 119.91 BPM
  421. 2019-07-18 03:07:32 ROBERT CAMERO - LOVE GAMES [ 1989, LOMBARDONI PUBLISHINGS (LMB 036) / ITALY ] 119.69 BPM
  422. 2019-07-18 03:04:48 BLOCK SISTEM - DON'T LEAVE ME NOW [ 1983, RABBIT RECORDS (RR 001) / ITALY ] 119.69 BPM
  423. 2019-07-18 03:01:50 P. LION - RUBBER GAME [ 1984, DISCOMAGIC RECORDS (LP 191) / ITALY ] 119.69 BPM
  424. 2019-07-18 02:59:07 K-A-T-A - FIRES IN THE NIGHT [ 1985, SOUND OF ITALY (MIX 001) / ITALY ] 118.84 BPM
  425. 2019-07-18 02:57:07 FRESH COLOR - NIGHTDREAMS [ 1985, GOLD RECORDS (11 258) / SWITZERLAND ] 118.84 BPM
  426. 2019-07-18 02:53:32 MAX COVERI - BYE BYE BABY [ 1987, RADIORAMA PRODUCTIONS (RA 87.08) / ITALY ] 118.84 BPM
  427. 2019-07-18 02:50:15 ICE MC - OK CORRAL! [ 1990, DANCE WORLD ATTACK RECORDS (DWA 00.17) / ITALY ] 118.84 BPM
  428. 2019-07-18 02:46:12 ROGER MENO - WHAT MY HEART WANNA SAY [ 1986, ZYX RECORDS (ZYX 5511) / GERMANY ] 118.36 BPM
  429. 2019-07-18 02:41:44 ALBERT ONE - HOPES & DREAMS [ 1987, ONE RECORDS (ONE 003) / ITALY ] 118.36 BPM
  430. 2019-07-18 02:36:50 TIME - CAN'T YOU FEEL IT [ 1982, FLY MUSIC (TPF 001/82) / ITALY ] 117.37 BPM
  431. 2019-07-18 02:29:10 ART OF LOVE - LOOKING THROUGH THE NIGHT [ 1983, SQUISH RECORDS (BTV 10.002) / ITALY ] 118.21 BPM
  432. 2019-07-18 02:25:39 PLASTIC MODE - N.Y. LIFE [ 1985, DISCOMAGIC RECORDS (LP 238) / ITALY ] 118.21 BPM
  433. 2019-07-18 02:20:55 SCOTCH - PENGUIN'S INVASION (VOX) [ 1983, AMERICAN DISCO (AMD 001) / ITALY ] 118.21 BPM
  434. 2019-07-18 02:17:37 FRESH COLOR - D.J. TRACK VOL. 1 [ 1986, GOLD RECORDS (10 141) / SWITZERLAND ] 118.21 BPM
  435. 2019-07-18 02:14:37 JAGO - I'M GOING TO GO [ 1983, FULL TIME RECORDS (FTM 31533) / ITALY ] 118.21 BPM
  436. 2019-07-18 02:12:03 KOTO - MINOAN WAR [ 1989, ZYX RECORDS (ZYX 20160-1) / GERMANY ] 119.04 BPM
  437. 2019-07-18 02:09:21 STAGE - DREAMIN' ON THE TOP [ 1983, DAILY MUSIC (DLM 31521) / ITALY ] 118.15 BPM
  438. 2019-07-18 02:05:43 ANGIE - CLOUDS [ 1984, TANGA LABEL (TL 009) / ITALY ] 118.15 BPM
  439. 2019-07-18 02:01:57 LOUI$ - SUMMER IN THE DARK [ 1986, CARRERE RECORDS (CAR 72504) / ITALY ] 118.73 BPM
  440. 2019-07-18 01:58:59 JERRY MOON - OVER AND OVER [ 1984, BLUE PRODUCTIONS (BP 7001) / ITALY ] 119.13 BPM
  441. 2019-07-18 01:54:34 PETER AND THE WOLF - PETER AND THE WOLF [ 1986, AMERICAN DISCO (AMD 020) / ITALY ] 119.98 BPM
  442. 2019-07-18 01:48:47 EAST WALL - EYES OF GLASS [ 1985, NO COMMENT RECORDS (NC 011) / ITALY ] 119.98 BPM
  443. 2019-07-18 01:43:10 KOTO - ACKNOWLEDGE [ 1990, ZYX RECORDS (ZYX 6460-12) / GERMANY ] 119.98 BPM
  444. 2019-07-18 01:39:31 STAGE - REAL [ 1985, FULL TIME RECORDS (FTM 31570) / ITALY ] 120.42 BPM
  445. 2019-07-18 01:36:27 P. LION - REGGAE RADIO [ 1984, DISCOMAGIC RECORDS (LP 191) / ITALY ] 119.86 BPM
  446. 2019-07-18 01:33:31 ZETA - WONDRIN' WHY [ 1985, CRUISIN' RECORDS (CRN 722) / ITALY ] 119.72 BPM
  447. 2019-07-18 01:30:08 SILVER - LET ME BE YOUR LOVE [ 1988, MAX MUSIC (MAX 313) / SPAIN ] 119.96 BPM
  448. 2019-07-18 01:26:25 SABRINA - HOT GIRL [ 1987, FIVE RECORDS (FM MIX 13820) / ITALY ] 119.96 BPM
  449. 2019-07-18 01:23:44 GOMMA - BAIANA [ 1984, DISCOMAGIC RECORDS (MIX 161) / ITALY ] 119.14 BPM
  450. 2019-07-18 01:19:35 ITALIAN BOYS - TAKE MY LOVE [ 1991, BMS RECORDS (BMS 338) / ITALY ] 119.14 BPM
  451. 2019-07-18 01:15:04 CHARLEY - I CAN'T LOVE [ 1984, SENSATION RECORDS (SNS 8021) / ITALY ] 118.61 BPM
  452. 2019-07-18 01:10:01 BRAND IMAGE - MOVIN' UP [ 1984, CRASH RECORDS (DS 016) / ITALY ] 118.61 BPM
  453. 2019-07-18 01:05:18 ROBERT TOMASI - SAD IMAGES [ 1986, DIGITAL RECORDS (DR 8605) / ITALY ] 118.61 BPM
  454. 2019-07-18 01:01:12 THE BOY - SOLDIERS OF LOVE [ 1987, ARS RECORDS (ARS 3704) / BELGIUM ] 118.95 BPM
  455. 2019-07-18 00:55:10 EDELWEISS - BRING ME EDELWEISS [ 1988, GIG RECORDS (247 543-0) / AUSTRIA ] 118.39 BPM
  456. 2019-07-18 00:50:17 KOTO - DRAGON'S LEGEND [ 1988, MEMORY RECORDS (MEMIX 074) / ITALY ] 117.78 BPM
  457. 2019-07-18 00:43:46 DAVID DEVIL - MEN OF MY GENERATION [ 1984, S.P.Q.R. RECORDS (SPQR 1121) / ITALY ] 117.78 BPM
  458. 2019-07-18 00:38:08 B. BLASE - SHAME (YOU WERE THE BIG SENSATION) [ 1984, MANY RECORDS (MN 509) / ITALY ] 118.11 BPM
  459. 2019-07-18 00:32:00 D. CARRED - YOU'LL BE A WINNER [ 1985, DEM RECORDS (DMR 1201) / ITALY ] 118.11 BPM
  460. 2019-07-18 00:27:57 AVENIDA 29 - IT'S PIZZA TIME [ 1984, THICK RECORDS (TK 005) / ITALY ] 118.11 BPM
  461. 2019-07-18 00:25:03 ELLY BROWN - DON'T HANG UP [ 1984, EMERGENCY RECORDS (120-19-007) / GERMANY ] 118.11 BPM
  462. 2019-07-18 00:21:42 THE FLIRTS - HELPLESS [ 1984, TELEPHONE RECORDS (TE 3) / US ] 117.78 BPM
  463. 2019-07-18 00:19:52 TIMERIDER - COCOON [ 1985, ZYX RECORDS (ZYX 5371) / GERMANY ] 117.53 BPM
  464. 2019-07-18 00:16:52 BROS. RETURN - (THE WALLS OF) JERICHO [ 1987, STREETHEAT RECORDS (STHS 1204) / SWITZERLAND ] 117.53 BPM
  465. 2019-07-18 00:13:03 LITTLE JACK JINGLE - TOLEDO GIRL [ 1984, HISS RECORDS (HISS 011) / ITALY ] 116.71 BPM
  466. 2019-07-18 00:07:51 MDMC - HOW ABOUT IT [ 1984, JUMBO RECORDS (JU 12017) / ITALY ] 116.71 BPM
  467. 2019-07-18 00:02:32 BB & BAND - ALL NIGHT LONG [ 1987, LIMITED EDITION RECORDS (LE 016) / ITALY ] 116.91 BPM
  468. 2019-07-17 23:58:22 ALAN ROSS - VALENTINO MON AMOUR [ 1985, MEMORY RECORDS (MEMIX 029) / ITALY ] 117.69 BPM
  469. 2019-07-17 23:54:33 MIKE CANNON - GOIN' CRAZY [ 1985, MEMORY RECORDS (MEMIX 034) / ITALY ] 117.69 BPM
  470. 2019-07-17 23:50:46 EXECUTIVE - EXECUTIVE (DANCE) [ 1986, L'EXECUTIVE CLUB RECORDS (1001) / ITALY ] 118.21 BPM
  471. 2019-07-17 23:46:51 PINTO - SING A SONG OF JOY [ 1984, DISCOMAGIC RECORDS (MIX 157) / ITALY ] 118.21 BPM
  472. 2019-07-17 23:42:14 PLASTIC MODE - BAJA IMPERIAL (U.S. REMIX) [ 1985, DISCOMAGIC RECORDS (MIX 260) / ITALY ] 118.21 BPM
  473. 2019-07-17 23:39:53 MR. FLAGIO - TAKE A CHANCE [ 1983, SQUISH RECORDS (BTV 10.001) / ITALY ] 118.76 BPM
  474. 2019-07-17 23:36:09 PAUL REIN - COMMUNICATE [ 1987, INJECTION DISCO DANCE LABEL (234.798) / NETHERLANDS ] 119.75 BPM
  475. 2019-07-17 23:32:34 NICK SIMON - TWO HEARTS [ 1984, AMERICA RECORDS (AR 0513) / ITALY ] 120.62 BPM
  476. 2019-07-17 23:28:56 FRANZ & FRANKIE - LET ME GO [ 1986, DISCOS GAMES RECORDS (DG 1211) / SPAIN ] 120.6 BPM
  477. 2019-07-17 23:23:59 MOSES - WE JUST (NEW MIX) [ 1985, REVOLUTION RECORDS (REV 111) / ITALY ] 120.6 BPM
  478. 2019-07-17 23:20:08 RYGAR - STAR TRACKS [ 1988, MADE UP RECORDS (MUR 412) / NETHERLANDS ] 120.6 BPM
  479. 2019-07-17 23:14:43 VIVIEN VEE - BLUE DISEASE [ 1983, BANANA RECORDS (ZBAN 7310) / ITALY ] 120.51 BPM
  480. 2019-07-17 23:10:25 TAGOMAGO - SHOOBEEDÀ [ 1986, CRASH RECORDS (DS 038) / ITALY ] 120.51 BPM
  481. 2019-07-17 23:07:18 MICHELE - LOVE ME, LOVE ME [ 1987, FIVE RECORDS (FM 13816) / ITALY ] 120.51 BPM
  482. 2019-07-17 23:05:30 TIMERIDER - COCOON [ 1985, ZYX RECORDS (ZYX 5371) / GERMANY ] 121.44 BPM
  483. 2019-07-17 23:02:36 CHAMPAGNE GANG - LOVELY CHAMPAGNE [ 1983, ZANZA RECORDS (ZR 0124) / ITALY ] 121.44 BPM
  484. 2019-07-17 23:00:04 THE RADIO PIRATES - WHAT SHALL WE DO WITH THE DRUNKEN D.J. [ 1987, HANSA RECORDS (608 932) / GERMANY ] 121.44 BPM
  485. 2019-07-17 22:55:33 COSTAS CHARITODIPLOMENOS - FILL MY GLASS (REMIX) [ 1984, EMI RECORDS / GREECE ] 121.44 BPM
  486. 2019-07-17 22:51:00 THE WINNERS - FREEDOM [ 1986, CRASH RECORDS (DS 039) / ITALY ] 121.44 BPM
  487. 2019-07-17 22:47:00 G & M - DON'T LET YOU DOWN [ 1988, TIME RECORDS (TRD 1064) / ITALY ] 121.44 BPM
  488. 2019-07-17 22:43:22 C.M.D.B - LET'S GET IT TOGETHER [ 1984, BREAK RECORDS (308465) / NETHERLANDS ] 121.44 BPM
  489. 2019-07-17 22:39:16 BOBBY 'O' - I'M SO HOT FOR YOU (REMIX) [ 1984, ARS RECORDS (BMC 3598) / BELGIUM ] 121.44 BPM
  490. 2019-07-17 22:34:26 NJAGARA - SAVE ME [ 1984, BLOW UP DISCO RECORDS (BU 0031) / ITALY ] 120.68 BPM
  491. 2019-07-17 22:30:01 RYN'O - GIGOLO' [ 1984, WMB PRODUCTION (WMB 001) / ITALY ] 120.68 BPM
  492. 2019-07-17 22:27:06 LAURIE - TAKE MY HEART AWAY [ 1993, ASIA RECORDS (ARD 1130) / ITALY ] 120.68 BPM
  493. 2019-07-17 22:21:48 PAUL DIAMOND - DO THAT GOOD [ 1984, ON THE ROCKS RECORDS (PPD 2101) / ITALY ] 121.52 BPM
  494. 2019-07-17 22:16:02 BRAND IMAGE - ARE YOU LOVING? [ 1983, IL DISCOTTO PRODUCTIONS (ART 1020) / ITALY ] 121.84 BPM
  495. 2019-07-17 22:10:54 FRED VENTURA - WIND OF CHANGE [ 1986, TIME RECORDS (TRD 1028) / ITALY ] 121.84 BPM
  496. 2019-07-17 22:07:29 JONATHAN GABLE - CENTRAL PARK [ 1985, FDT RECORDS (FDT 015) / ITALY ] 121.26 BPM
  497. 2019-07-17 22:03:28 MOULIN ROUGE - BABY I MISS YOU [ 1989, EXPANDED MUSIC (EX 54Y) / ITALY ] 120.79 BPM
  498. 2019-07-17 21:59:56 DJ'S PROJECT - VISION OF LOVE [ 1987, ZYX RECORDS (ZYX 5700) / ITALY ] 119.97 BPM
  499. 2019-07-17 21:54:49 MOSES - OUR REVOLUTION (NEW MIX) [ 1985, REVOLUTION RECORDS (REV 111) / ITALY ] 119.97 BPM
  500. 2019-07-17 21:51:51 JAGO - I'M GOING TO GO [ 1983, FULL TIME RECORDS (FTM 31533) / ITALY ] 119.97 BPM
  501. 2019-07-17 21:47:12 BETTY MIRANDA - LET'S ALL FALL IN LOVE [ 1985, MANY RECORDS (MN 542) / ITALY ] 119.97 BPM
  502. 2019-07-17 21:43:27 PREMIO NOBEL - WHITE FLAME [ 1987, ITALIAN RECORDS (14 2021546) / ITALY ] 119.97 BPM
  503. 2019-07-17 21:39:07 EDDY HUNTINGTON - UP & DOWN [ 1987, ESQUIRE RECORDS (SQ 87506) / ITALY ] 119.98 BPM
  504. 2019-07-17 21:36:28 SAHARA - SHINING [ 1985, MANY RECORDS (MN 551) / ITALY ] 119.98 BPM
  505. 2019-07-17 21:32:16 2-TWO - WEEK-END [ 1987, IBIZA RECORDS (IBZ 651012 6) / ITALY ] 120.64 BPM
  506. 2019-07-17 21:26:10 MARK OWEN - THIS MOMENT [ 1983, PAN POT RECORDS (PR 502) / ITALY ] 120.64 BPM
  507. 2019-07-17 21:21:38 COMANCERO - COMANCHERO (REMIX '89) [ 1989, GREEN PRODUCTIONS (GP 1001) / ITALY ] 120.64 BPM
  508. 2019-07-17 21:17:41 ALPHA TOWN - HEY ROBIN [ 1988, ASIA RECORDS (ARD 1009) / ITALY ] 121.59 BPM
  509. 2019-07-17 21:14:04 STAGE - REAL [ 1985, FULL TIME RECORDS (FTM 31570) / ITALY ] 121.59 BPM
  510. 2019-07-17 21:10:54 PRIMERO - OH QUE CALOR [ 1987, HOTSOUND RECORDS (HS 8722) / NETHERLANDS ] 121.59 BPM
  511. 2019-07-17 21:06:46 AURORA AVENUE - TOLEDO BLADE [ 1987, PARADISE RECORDS (PRIM 001) / ITALY ] 121.59 BPM
  512. 2019-07-17 21:01:48 AMIN-PECK - ANXIETY [ 1982, DELIRIUM RECORDS (DLM M25971) / ITALY ] 121.59 BPM
  513. 2019-07-17 20:58:49 PAUL PARKER - RIGHT ON TARGET [ 1982, MEGATONE RECORDS (MT 101) / US ] 121.59 BPM
  514. 2019-07-17 20:55:22 C-BAND - MIDNIGHT MAN [ 1984, MERAK MUSIC (MKX 900) / ITALY ] 122.01 BPM
  515. 2019-07-17 20:51:26 CLIFF TURNER - I NEED YOUR LOVE [ 1987, ZYX RECORDS (ZYX 5699) / GERMANY ] 122.01 BPM
  516. 2019-07-17 20:48:02 GIANCO - OLD NIGHT FLIGHT [ 1983, CAT RECORDS (CAT 2005) / ITALY ] 122.01 BPM
  517. 2019-07-17 20:44:04 CRUISIN' GANG - AMERICA [ 1985, CRUISIN' RECORDS (CRN 737) / ITALY ] 121.31 BPM
  518. 2019-07-17 20:39:23 TELEFON BOYS - GET UP, GET UP [ 1985, THICK RECORDS (TK 014) / ITALY ] 121.31 BPM
  519. 2019-07-17 20:32:00 HELEN - I LOVE YOU [ 1989, MEMORY RECORDS (MEMIX 086) / ITALY ] 121.67 BPM
  520. 2019-07-17 20:28:04 RADIORAMA - ALIENS 2 (THE NIGHTMARE) [ 1993, RADIORAMA PRODUCTIONS (RA 48/92) / ITALY ] 121.67 BPM
  521. 2019-07-17 20:23:38 FELLI - DIAMOND IN THE NIGHT [ 1983, DISCOMAGIC RECORDS (MIX 135) / ITALY ] 122.45 BPM
  522. 2019-07-17 20:20:43 ZENER - NEW GENERATION [ 1984, DURIUM RECORDS (DEX 13065) / ITALY ] 122.45 BPM
  523. 2019-07-17 20:18:07 ATTACK - CRAZY FOR YOUR LOVE (REMIX) [ 1989, HOTSOUND RECORDS (HS 8920) / NETHERLANDS ] 122.57 BPM
  524. 2019-07-17 20:15:22 FRANK-HINO - FLYING DREAM [ 1985, SENSATION RECORDS (SNS 8032) / ITALY ] 121.64 BPM
  525. 2019-07-17 20:11:33 JOAN KATTON - SUZIE'S PANTS [ 1985, CITY RECORDS (C 6508) / ITALY ] 121.64 BPM
  526. 2019-07-17 20:08:34 FRANCESCO SALVI - ESATTO! [ 1989, FIVE RECORDS (FM 13830) / ITALY ] 121.64 BPM
  527. 2019-07-17 20:04:47 PINTO - SING A SONG OF JOY [ 1984, DISCOMAGIC RECORDS (MIX 157) / ITALY ] 121.64 BPM
  528. 2019-07-17 20:01:06 CHERRY - MAGIC HOLIDAY [ 1989, MEET RECORDS (MEET 081) / ITALY ] 121.64 BPM
  529. 2019-07-17 19:57:50 J.D. JABER - DON'T STOP LOVIN' [ 1983, MEMORY RECORDS (MEMIX 005) / ITALY ] 121.64 BPM
  530. 2019-07-17 19:52:43 CHI CHI LIAH - PROUD MARY (REMIX) [ 1983, X-ENERGY RECORDS (X-12004) / ITALY ] 121.64 BPM
  531. 2019-07-17 19:46:01 DYVA - CANNERY THE CANARY [ 1990, TECHNOLOGY (TECHNO 12.61) / ITALY ] 121.64 BPM
  532. 2019-07-17 19:41:40 SAVOIR FAIRE & UPTOWN EXPRESS - LET'S ROCK, BREAK AND BOOGIE [ 1984, CGD RECORDS (INT 15169) / ITALY ] 120.83 BPM
  533. 2019-07-17 19:38:54 PERESTROIKA POWER - ANIMAL FARM [ 1989, STREETHEAT RECORDS (STH 12318) / NETHERLANDS ] 121.21 BPM
  534. 2019-07-17 19:35:29 YERI M. - IT'S TIME TO GO [ 1985, OUT RECORDS (OUT 3030) / ITALY ] 121.75 BPM
  535. 2019-07-17 19:30:36 OBERHAIM - SHE IS LIAR [ 1988, MASTER PROGRAM RECORDS (MPP 202) / ITALY ] 121.75 BPM
  536. 2019-07-17 19:26:42 BABY'S GANG - HAPPY SONG (REMIX) [ 1985, MEMORY RECORDS (ME LP 002) / ITALY ] 122.52 BPM
  537. 2019-07-17 19:20:36 FUN FUN - COLOR MY LOVE [ 1984, X-ENERGY RECORDS (X-12007) / ITALY ] 122.52 BPM
  538. 2019-07-17 19:16:42 MICHAEL FORTUNATI - INTO THE NIGHT [ 1987, FLARENASCH RECORDS (722 875) / FRANCE ] 122.38 BPM
  539. 2019-07-17 19:11:32 JEAN & JILL - BLUE BLUE EYES [ 1988, KBC RECORDS (1002) / GERMANY ] 122.38 BPM
  540. 2019-07-17 19:06:34 FUN FUN - COULD THIS BE LOVE (HOUSE REMIX) [ 1987, X-ENERGY RECORDS (X-12025) / ITALY ] 122.38 BPM
  541. 2019-07-17 19:01:14 CARLOS & STEFAN - SWEET BAIA [ 1987, MEET RECORDS (MEET 001) / ITALY ] 122.89 BPM
  542. 2019-07-17 18:58:37 WANEXA - THE MAN FROM COLOURS [ 1982, DISCOMAGIC RECORDS (MIX 016) / ITALY ] 122.72 BPM
  543. 2019-07-17 18:54:26 SARA CARLSON - SECRETS OF LOVE [ 1988, CINEVOX RECORDS (SCX 100) / ITALY ] 122.29 BPM
  544. 2019-07-17 18:50:50 PAUL DIAMOND - ENJOY THE LIFE [ 1979, GDR RECORDS (GDR 2001) / ITALY ] 122.95 BPM
  545. 2019-07-17 18:47:22 FERNANDO 'FERNANDISCO' MARTINEZ - ACTION, PASSION, FASHION, MOVING [ 1985, MAX MUSIC (MAX 120) / SPAIN ] 122.95 BPM
  546. 2019-07-17 18:41:38 MOZZART - DEVIL'S RENDEZVOUS [ 1985, METRONOME RECORDS (883 494-1) / GERMANY ] 122.95 BPM
  547. 2019-07-17 18:38:30 ENERGY SS - LILY MARLENE [ 1991, ONYX RECORDS / CROATIA ] 123.68 BPM
  548. 2019-07-17 18:35:08 TAFFY - WHITE AND BLACK [ 1982, PHOENIX RECORDS (PHOMIX 310) / ITALY ] 123.68 BPM
  549. 2019-07-17 18:31:15 JASMINE - RUNNING DOWN [ 1989, HIGH ENERGY RECORDS (HE 119) / ITALY ] 123.68 BPM
  550. 2019-07-17 18:27:22 JOEY MOON - ANGELICA [ 1983, HARMONY MUSIC (HY 003) / ITALY ] 123.23 BPM
  551. 2019-07-17 18:24:11 SONNY GARCIA - FIX YOUR ANTENNA [ 1987, ZYX RECORDS (ZYX 5725) / GERMANY ] 123.23 BPM
  552. 2019-07-17 18:20:03 LINDA JO - PASSION [ 1988, ZYX RECORDS (ZYX 5890) / ITALY ] 122.63 BPM
  553. 2019-07-17 18:16:01 ALAN BARRY - HIE HIE HIE [ 1987, TECHNOLOGY RECORDS (TECHNO 12.26) / ITALY ] 122.63 BPM
  554. 2019-07-17 18:12:19 HELEN - WITCH [ 1983, OUT RECORDS (OUT 3005) / ITALY ] 122.63 BPM
  555. 2019-07-17 18:05:46 ALBA - ONLY MUSIC SURVIVES [ 1985, MERAK MUSIC (MKX 010) / ITALY ] 122.63 BPM
  556. 2019-07-17 18:00:20 ALBERO CARRARA - DISCO KING [ 1983, EYES RECORDS (KEY 002) / ITALY ] 122.63 BPM
  557. 2019-07-17 17:57:20 FLAMINGO - COME TO ME (TONIGHT) [ 1987, WOW! RECORDS (HAL 1254) / US ] 122.63 BPM
  558. 2019-07-17 17:54:02 FAKE - F.F. (REMIX) [ 1984, DID RECORDS (MIMI 8402) / ITALY ] 123.35 BPM
  559. 2019-07-17 17:49:59 JENNY KEE - CARRY ON [ 1991, FCF RECORDS (FCF 16) / ITALY ] 123.85 BPM
  560. 2019-07-17 17:43:44 ANTHONY & ROSE - LOVE IS EVERYWHERE (MEDLEY) [ 1984, BEST RECORDS (BEST 12023) / ITALY ] 123.78 BPM
  561. 2019-07-17 17:37:36 ALIEN - VIDEO GAMES (GETS IN YOUR BRAIN) [ 1982, VIP RECORDS (VIP 15070) / ITALY ] 123.78 BPM
  562. 2019-07-17 17:33:51 RADIORAMA - BAD GIRLS [ 1988, RADIORAMA PRODUCTIONS (RA 88.03) / ITALY ] 123.78 BPM
  563. 2019-07-17 17:30:30 DAYDREAM - BABY BABY [ 1988, BLANCO Y NEGRO (MX 202) / SPAIN ] 124.2 BPM
  564. 2019-07-17 17:25:30 ANGELO MARIA MORALES - YOU MEAN LOVE [ 1991, RADIORAMA PRODUCTIONS (RA 30/91) / ITALY ] 124.81 BPM
  565. 2019-07-17 17:21:23 ROSE - I WANNA BE YOUR LOVE [ 1988, TIME RECORDS (TRD 1072) / ITALY ] 124.81 BPM
  566. 2019-07-17 17:15:43 MIKE HAZZARD - YOU [ 1989, ASIA RECORDS (ARD 1033) / ITALY ] 124.81 BPM
  567. 2019-07-17 17:11:46 MYA & THE MIRROR - HESTITATION [ 1984, FUZZ DANCE RECORDS (ZZ 20 006) / ITALY ] 124.81 BPM
  568. 2019-07-17 17:08:14 JOE YELLOW - EASY LOVERS [ 1988, DISCOMAGIC RECORDS (MIX 330) / ITALY ] 125.6 BPM
  569. 2019-07-17 17:04:10 DIVINE - NATIVE LOVE (HOLLAND REMIX) [ 1982, K-TEL RECORDS (TN 1811) / NETHERLANDS ] 125.6 BPM
  570. 2019-07-17 17:00:20 KANO - HOLLY DOLLY [ 1980, BABY RECORDS (BR 54002) / ITALY ] 125.6 BPM
  571. 2019-07-17 16:56:02 MICHAEL FORTUNATI - GIVE ME UP [ 1986, ARIOLA RECORDS (602 203) / GERMANY ] 126.37 BPM
  572. 2019-07-17 16:52:20 ROY - SHOOTING STAR [ 1987, MEMORY RECORDS (MEMIX 062) / ITALY ] 125.42 BPM
  573. 2019-07-17 16:48:08 GARY COOPER - NEVER CAN CHANGE MY MIND [ 1988, ASIA RECORDS (ARD 1015) / ITALY ] 125.88 BPM
  574. 2019-07-17 16:43:06 MIKE MAREEN - LOVE SPY (SALUTATION-MIX) [ 1987, GALAXIS RECORDS (GLX 9017) / GERMANY ] 126.16 BPM
  575. 2019-07-17 16:39:38 COCKROACH - GET BACK [ 1983, OUT RECORDS (OUT 3001) / ITALY ] 125.77 BPM
  576. 2019-07-17 16:35:38 TINA - CRAZY FOR YOU [ 1988, FIVE RECORDS (FM 13824) / ITALY ] 125.77 BPM
  577. 2019-07-17 16:32:18 BOBBY 'O' - HOW TO PICK UP GIRLS [ 1983, BMC RECORDS (BMC 10004) / BELGIUM ] 125.77 BPM
  578. 2019-07-17 16:29:08 WISH KEY - ORIENT EXPRESS (REMIX) [ 1986, RA-RE PRODUCTIONS (RA-RE 016-86) / ITALY ] 125.77 BPM
  579. 2019-07-17 16:20:18 GAZEBO - MASTERPIECE [ 1982, BABY RECORDS (BR 54015) / ITALY ] 125.19 BPM
  580. 2019-07-17 16:16:23 KOMA BAND - CAVRONES (DU TU VU NDÁ) [ 1983, CRASH RECORDS (DS 002) / ITALY ] 125.19 BPM
  581. 2019-07-17 16:11:36 ROFO - ROFO'S THEME 2 [ 1990, HI-TENSION RECORDS (HIT 3322) / BELGIUM ] 125.94 BPM
  582. 2019-07-17 16:08:10 RICK ROCK - TAKE ME AWAY [ 1987, BMS RECORDS (BMS 322) / ITALY ] 125.94 BPM
  583. 2019-07-17 16:04:52 DAYDREAM - BABY BABY [ 1988, BLANCO Y NEGRO (MX 202) / SPAIN ] 125.94 BPM
  584. 2019-07-17 15:59:50 FELLI - GREATEST MIND [ 1984, DISCOMAGIC RECORDS (MIX 170) / ITALY ] 125.94 BPM
  585. 2019-07-17 15:56:01 KANO - HOLLY DOLLY [ 1980, BABY RECORDS (BR 54002) / ITALY ] 125.6 BPM
  586. 2019-07-17 15:51:57 CHARLY DANONE - TAKE ME TO BED [ 1988, BLANCO Y NEGRO (MX 198) / SPAIN ] 125.74 BPM
  587. 2019-07-17 15:49:12 RIC FELLINI - WELCOME TO RIMINI (86 RE-REMIX) [ 1985, ROCK-IN RECORDS (ROCK LP 7) / HONG KONG ] 125.46 BPM
  588. 2019-07-17 15:45:09 DIVINE - NATIVE LOVE (HOLLAND REMIX) [ 1982, K-TEL RECORDS (TN 1811) / NETHERLANDS ] 125.66 BPM
  589. 2019-07-17 15:40:35 RADIORAMA - BAD BOY YOU [ 1989, RADIORAMA PRODUCTIONS (RA 89.01) / ITALY ] 125.66 BPM
  590. 2019-07-17 15:37:32 F50'S - HEY YOU [ 1989, ASIA RECORDS (ARD 1035) / ITALY ] 125.66 BPM
  591. 2019-07-17 15:34:14 DOSIO - DANCIN' [ 1983, TOP SECRET RECORDS (TS 1001) / ITALY ] 125.77 BPM
  592. 2019-07-17 15:29:04 MOTION - DON'T STOP [ 1982, TOJO RECORDS (T12-1003) / CANADA ] 124.81 BPM
  593. 2019-07-17 15:25:06 CHICO CHICO - HOT FOR YOU [ 1991, RADIORAMA PRODUCTIONS (RA 26/91) / ITALY ] 124.81 BPM
  594. 2019-07-17 15:21:27 CLAUDE SARRA - MUSIC'S PLAYING FOR YOU [ 1984, SENSATION RECORDS (SNS 8012) / ITALY ] 124.81 BPM
  595. 2019-07-17 15:16:50 LAURIE - YOU CAN TELL ME [ 1991, FCF RECORDS (FCF 19) / ITALY ] 124.81 BPM
  596. 2019-07-17 15:12:55 SABRINA - SEXY GIRL [ 1986, IBIZA RECORDS (IBZ 427) / ITALY ] 124.81 BPM
  597. 2019-07-17 15:09:57 SABRINA - YEAH, YEAH (REMIX) [ 1990, DISCOMAGIC RECORDS (MIX 491) / ITALY ] 124.58 BPM
  598. 2019-07-17 15:06:52 SHY ROSE FEAT. TONEY D. AND THE LOVETRIP ORCHESTRA - YOU ARE MY DESIRE [ 1989, FANTASY INTERNATIONAL RECORDS (FAN 1205) / SWITZERLAND ] 124.58 BPM
  599. 2019-07-17 15:02:10 MONO BAND - MR. CRUSOE [ 1984, F1 TEAM RECORDS (DM 9318) / ITALY ] 124.58 BPM
  600. 2019-07-17 14:58:27 GIUSY RAVIZZA - LIGHT [ 1984, SENSATION RECORDS (SNS 8017) / ITALY ] 124.27 BPM
  601. 2019-07-17 14:53:37 THE NASTY BOYS - I WAS MADE FOR LOVING YOU [ 1986, BMS RECORDS (BMS 309) / ITALY ] 124.79 BPM
  602. 2019-07-17 14:47:04 DAN ELLER - CARILLON [ 1983, ZANZA RECORDS (ZR 0131) / ITALY ] 124.14 BPM
  603. 2019-07-17 14:43:28 MAGIC MEN - POPCORN [ 1983, OUT RECORDS (MIX 3003) / ITALY ] 124.14 BPM
  604. 2019-07-17 14:39:44 RIKI VISCONTI - MAN IS FOR WOMAN [ 1991, STIL NOVO RECORDS (SNR 00591) / ITALY ] 124.01 BPM
  605. 2019-07-17 14:36:04 GAZUZU - GO GO GORILLA [ 1983, HIGH FASHION MUSIC (MS 89) / NETHERLANDS ] 123.58 BPM
  606. 2019-07-17 14:32:48 NOA-NOA - HARRY 'O [ 1983, BEST RECORDS (BEST 12018) / ITALY ] 123.58 BPM
  607. 2019-07-17 14:30:01 TONY TURN - CHERRY CHERY [ 1988, MEMORY RECORDS (MEMIX 079) / ITALY ] 123.58 BPM
  608. 2019-07-17 14:26:03 MELA - LOVE ME TOO [ 1991, FCF RECORDS (FCF 25) / ITALY ] 124.09 BPM
  609. 2019-07-17 14:21:24 GAUCHO - DANCE FOREVER [ 1983, SYSTEM MUSIC (SM 23584) / ITALY ] 123.7 BPM
  610. 2019-07-17 14:18:56 CHERRY LIME - TEASE ME [ 1989, LONDON STREET RECORDS (FTM 31635) / ITALY ] 123.23 BPM
  611. 2019-07-17 14:15:29 FERNANDO 'FERNANDISCO' MARTINEZ - ACTION, PASSION, FASHION, MOVING [ 1985, MAX MUSIC (MAX 120) / SPAIN ] 123.23 BPM
  612. 2019-07-17 14:12:18 SONNY GARCIA - FIX YOUR ANTENNA [ 1987, ZYX RECORDS (ZYX 5725) / GERMANY ] 123.23 BPM
  613. 2019-07-17 14:06:42 THE MAX HIM - DANGER DANGER [ 1986, CRUISIN' RECORDS (CRN 743) / ITALY ] 122.5 BPM
  614. 2019-07-17 14:02:38 TALHOY - THE GIRL IN LOVE [ 1989, BLUE VILLAGE RECORDS (BV 3001) / ITALY ] 122.5 BPM
  615. 2019-07-17 13:57:40 MEET POINT - THE KEY OF THE NIGHT [ 1984, DISCOMAGIC RECORDS (MIX 197) / ITALY ] 122.7 BPM
  616. 2019-07-17 13:51:34 FUN FUN - COLOR MY LOVE [ 1984, X-ENERGY RECORDS (X-12007) / ITALY ] 122.52 BPM
  617. 2019-07-17 13:48:01 VINICIO - DANCE YOU AND ME [ 1985, OUT RECORDS (OUT 3043) / ITALY ] 122.58 BPM
  618. 2019-07-17 13:44:27 COCKROACH - GET BACK [ 1983, OUT RECORDS (OUT 3001) / ITALY ] 122.58 BPM
  619. 2019-07-17 13:40:31 TOM HOOKER - REAL MEN [ 1985, MERAK MUSIC (MKX 410) / ITALY ] 122.58 BPM
  620. 2019-07-17 13:34:25 FUN FUN - LIVING IN JAPAN [ 1985, X-ENERGY RECORDS (X-12011) / ITALY ] 122.58 BPM
  621. 2019-07-17 13:30:33 JANE HILL - DIZZY NIGHT [ 1985, BABY RECORDS (BR 54058) / ITALY ] 122.58 BPM
  622. 2019-07-17 13:27:09 DR MONEY - TIME AFTER TIME [ 1988, TIME RECORDS (TRD 1086) / ITALY ] 122.57 BPM
  623. 2019-07-17 13:23:13 RIZZO - HOT DESIRE [ 1988, ON THE ROAD RECORDS (OTR 106) / ITALY ] 122.57 BPM
  624. 2019-07-17 13:18:04 CARRARA - DISCO KING (LONDON REMIX) [ 1987, KEEPON MUSIC (KM 838514) / ITALY ] 122.57 BPM
  625. 2019-07-17 13:14:05 IMAGE - HOT STUFF [ 1984, MEMORY RECORDS (MEMIX 025) / ITALY ] 122.57 BPM
  626. 2019-07-17 13:10:34 BARBARA DOUST - IF YOU LOVE SOMEBODY [ 1987, POWER RECORDS (PXD 090) / CANADA ] 122.57 BPM
  627. 2019-07-17 13:06:14 STEVE MARTIN - OH WHAT A NIGHT [ 1983, DISCOMAGIC RECORDS (MIX 134) / ITALY ] 122.57 BPM
  628. 2019-07-17 13:03:44 MR. MASTER - A DOG IN THE NIGHT [ 1983, HOUSE OF MUSIC RECORDS (HM 1002) / ITALY ] 122.57 BPM
  629. 2019-07-17 13:00:27 MARSICO - FUNK SUMATRA [ 1984, DISCOMAGIC RECORDS (MIX 216) / ITALY ] 123 BPM
  630. 2019-07-17 12:54:15 ANTHONY & ROSE - LOVE IS EVERYWHERE (MEDLEY) [ 1984, BEST RECORDS (BEST 12023) / ITALY ] 122.63 BPM
  631. 2019-07-17 12:50:07 RIC FELLINI - SOUVENIR D'AMOUR [ 1986, BEST RECORDS INTERNATIONAL (BEST INT 12005) / ITALY ] 121.96 BPM
  632. 2019-07-17 12:46:28 JOE YELLOW - WILD BOY [ 1989, DISCOMAGIC RECORDS (MIX 350) / ITALY ] 122.74 BPM
  633. 2019-07-17 12:43:44 CLIFF TURNER - MOONLIGHT AFFAIR [ 1986, ZYX RECORDS (ZYX 5543) / GERMANY ] 121.96 BPM
  634. 2019-07-17 12:40:19 BOBBY GAME - BABY BIG MAN [ 1983, BEST RECORDS (BEST 12016) / ITALY ] 121.37 BPM
  635. 2019-07-17 12:36:48 C.A. AND THE BOX - OUT OF THE BOX [ 1985, TIME RECORDS (TRD 1016) / ITALY ] 120.58 BPM
  636. 2019-07-17 12:31:33 MARK ADAMS - I KNOW YOUR MIND [ 1986, FDT RECORDS (FDT 020) / ITALY ] 120.58 BPM
  637. 2019-07-17 12:27:20 PARKING - FASHION [ 1986, POWER RECORDS (PDR 002) / ITALY ] 121.28 BPM
  638. 2019-07-17 12:22:21 TOP TOP - VAMOS A LA CAMA [ 1988, ON THE BEAT RECORDS (OTB 1358-6) / FRANCE ] 121.08 BPM
  639. 2019-07-17 12:16:16 ASIA GANG - AFRIKA [ 1991, FCF RECORDS (FCF 29) / ITALY ] 121.08 BPM
  640. 2019-07-17 12:12:32 ANDREA - THAT'S THE WAY MY LOVE IS [ 1991, FCF RECORDS (FCF 28) / ITALY ] 120.42 BPM
  641. 2019-07-17 12:08:54 STAGE - REAL [ 1985, FULL TIME RECORDS (FTM 31570) / ITALY ] 120.42 BPM
  642. 2019-07-17 12:03:54 HIPNOSIS - PULSTAR [ 1983, MEMORY RECORDS (MEMIX 002) / ITALY ] 119.79 BPM
  643. 2019-07-17 11:59:54 ALF - CRUISIN' ON MELMAC INTERSTATE [ 1987, RCA RECORDS (PB 41663) / NETHERLANDS ] 119.79 BPM
  644. 2019-07-17 11:54:59 ANGIE CARE - YOUR MIND [ 1984, MERAK MUSIC (MKX 800) / ITALY ] 120 BPM
  645. 2019-07-17 11:49:57 T. ARK - UNDER COVER LOVER [ 1987, ZYX RECORDS (ZYX 5729) / GERMANY ] 120.68 BPM
  646. 2019-07-17 11:46:11 MIKE HAZZARD - STOP ME BABY [ 1988, ASIA RECORDS (ARD 1007) / ITALY ] 120.68 BPM
  647. 2019-07-17 11:43:03 MAX DELOS - SEX TO TAKE [ 1988, VIDEOSTAR RECORDS (VS 000177) / ITALY ] 120.11 BPM
  648. 2019-07-17 11:39:36 KLAPTO - MISTER GAME [ 1983, DURIUM RECORDS (DEX 13043) / ITALY ] 120.11 BPM
  649. 2019-07-17 11:35:39 CHANGE - EXAMINATION [ 1985, RENAISSANCE INTERNATIONAL RECORDS (RNS 12019) / ITALY ] 120.24 BPM
  650. 2019-07-17 11:31:15 TOMMY - LOVE BEACH [ 1987, ACADEMY RECORDS (ACD 8533) / ITALY ] 120.24 BPM
  651. 2019-07-17 11:28:12 VICIO LATINO - ¿QUÉ ME PASA, QUÉ ME PASA? [ 1983, EPIC RECORDS (EPC 12.3966) / SPAIN ] 120.24 BPM
  652. 2019-07-17 11:24:40 C-BAND - MIDNIGHT MAN [ 1984, MERAK MUSIC (MKX 900) / ITALY ] 120.24 BPM
  653. 2019-07-17 11:19:53 VLADY SHERKANE - CHA CHA CHA FOR YOU [ 1986, CARRERE RECORDS (8679) / FRANCE ] 120.72 BPM
  654. 2019-07-17 11:17:22 LORRAINE MCKANE - LET THE NIGHT TAKE THE BLAME [ 1984, PROFILE RECORDS (PRO 7061) / US ] 119.98 BPM
  655. 2019-07-17 11:12:32 KOTO - DRAGON'S LEGEND [ 1988, MEMORY RECORDS (MEMIX 074) / ITALY ] 119.17 BPM
  656. 2019-07-17 11:07:57 THE WINNERS - FREEDOM [ 1986, CRASH RECORDS (DS 039) / ITALY ] 119.52 BPM
  657. 2019-07-17 11:05:34 MISTERY - SOUND COMBINATION [ 1988, RADIORAMA PRODUCTIONS (RA 88.08) / ITALY ] 119.97 BPM
  658. 2019-07-17 11:02:13 J. DOLPHIN - ALL THAT I WANT IS TO SAY [ 1987, BMS RECORDS (BMS 324) / ITALY ] 119.97 BPM
  659. 2019-07-17 10:58:53 FOCKEWULF 190 - GITANO [ 1984, F1 TEAM RECORDS (DM 9319) / ITALY ] 119.96 BPM
  660. 2019-07-17 10:55:25 VICK TRICK - I WANT SOMEONE TO LOVE [ 1984, S.P.Q.R. RECORDS (SPQR 1124) / ITALY ] 120.13 BPM
  661. 2019-07-17 10:51:27 JODY-J - LES AMERICAINS [ 1983, DYNAMO SOUND STUDIO (DSS 135) / ITALY ] 120.98 BPM
  662. 2019-07-17 10:47:13 CITY-O' - ROSE OF TOKYO [ 1984, DISCOMAGIC RECORDS (MIX 165) / ITALY ] 120.98 BPM
  663. 2019-07-17 10:43:06 PEMIO NOBEL - SUGAR LOVE [ 1987, IBIZA RECORDS (IBZ 439) / ITALY ] 120.5 BPM
  664. 2019-07-17 10:37:46 MR. ROCAMBLE - I'VE GOT YOUR SOUL [ 1984, HISS RECORDS (HIS 009) / ITALY ] 121.15 BPM
  665. 2019-07-17 10:35:30 SILVIA - COME ON [ 1987, THIRD LABEL (THIRD 5011) / ITALY ] 121.15 BPM
  666. 2019-07-17 10:30:19 J.D. JABER - DON'T WAKE ME UP [ 1986, MEMORY RECORDS (MEMIX 046) / ITALY ] 120.24 BPM
  667. 2019-07-17 10:28:11 ESAVU - SIA-SIOÙ (BREAKIN' UP) [ 1983, REAL SOUND RECORDS (RS 1007) / ITALY ] 120.24 BPM
  668. 2019-07-17 10:25:07 QUINTALINO BAND - MIGUEL SON MI [ TOP LINE PRODUCTIONS (RP 1201) / ITALY ] 120.91 BPM
  669. 2019-07-17 10:21:06 SUSAN STEVENS - GET TO YOU [ 1983, TOJO RECORDS (T12-1015) / CANADA ] 121.65 BPM
  670. 2019-07-17 10:17:17 LORAINE - BODY SOUL ROCK'N ROLL [ 1990, HIGH ENERGY RECORDS (HE 132) / ITALY ] 121.65 BPM
  671. 2019-07-17 10:15:12 NUMERO UNO - TORA TORA TORA [ 1984, CNR RECORDS (142.118) / NETHERLANDS ] 121.67 BPM
  672. 2019-07-17 10:11:47 FORBIDDEN FRUITS - DISCO HALLOWEEN [ 1986, DISCOMAGIC RECORDS (MIX 288) / ITALY ] 121.55 BPM
  673. 2019-07-17 10:06:50 WALTER GATE - CALL ME LOVE [ 1983, NEW YORK RECORDS (NY 0283) / ITALY ] 122.5 BPM
  674. 2019-07-17 10:00:44 SISLEY FERRÉ - OPEN YOUR EYES (MIAMI REMIX) [ 1988, HOTSOUND RECORDS (HS 88040) / ITALY ] 123.25 BPM
  675. 2019-07-17 09:57:37 FINZY KONTINI - SMOOTH SENSATION [ 1992, FINZY RECORDS (FZR 023) / ITALY ] 123.25 BPM
  676. 2019-07-17 09:54:07 DUST MAN - KING OF THE GHETTO [ 1983, CGD RECORDS (INT 15119) / ITALY ] 123.25 BPM
  677. 2019-07-17 09:49:44 FELLI - DIAMOND IN THE NIGHT [ 1983, DISCOMAGIC RECORDS (MIX 135) / ITALY ] 123.98 BPM
  678. 2019-07-17 09:45:56 SILENT CIRCLE - STOP THE RAIN [ 1986, BLOW UP RECORDS (INT 125.548) / GERMANY ] 123.94 BPM
  679. 2019-07-17 09:42:38 TED MARVIN - MIRA LA BAIA DEL SOL [ 1985, AMERICAN RECORDS (AMR 005) / ITALY ] 124.16 BPM
  680. 2019-07-17 09:39:48 DIGITAL EMOTION - ELECTRIC LOVE [ 1984, BREAK RECORDS (841012) / NETHERLANDS ] 124.16 BPM
  681. 2019-07-17 09:36:57 ATTACK - CRAZY FOR YOUR LOVE [ 1985, HOTSOUND RECORDS (HS 85612) / NETHERLANDS ] 124.29 BPM
  682. 2019-07-17 09:29:51 PEPPERMINT - LIGHT A LIGHT (U.S. REMIX) [ 1987, RJM RECORDS (RJM 002) / US ] 124.29 BPM
  683. 2019-07-17 09:25:33 TIZIANA RIVALE - MOVIESTORY [ 1986, GOLD RECORDS (ZL 34361) / ITALY ] 123.58 BPM
  684. 2019-07-17 09:22:53 AMIN-PECK - GIRLS ON ME [ 1982, DELIRIUM RECORDS (DLM M2971) / ITALY ] 123.58 BPM
  685. 2019-07-17 09:19:28 VANELLE - TELL ME [ 1985, POWER RECORDS (PXD 035) / CANADA ] 123.58 BPM
  686. 2019-07-17 09:15:37 KINKY GO - YOU YOU YOU [ 1988, BMS RECORDS (BMS 333) / ITALY ] 124.36 BPM
  687. 2019-07-17 09:12:51 TONY TURN - CHERRY CHERY [ 1988, MEMORY RECORDS (MEMIX 079) / ITALY ] 123.58 BPM
  688. 2019-07-17 09:07:14 BRYAN ROSS - LET'S GO (WHY DON'T YOU TRY) [ 1984, EYES RECORDS (KEY 12656) / ITALY ] 123.26 BPM
  689. 2019-07-17 09:03:10 TINA - CRAZY FOR YOU [ 1988, FIVE RECORDS (FM 13824) / ITALY ] 123.26 BPM
  690. 2019-07-17 08:58:15 LAURIE - CHICA CUBANA [ 1988, ASIA RECORDS (ARD 1001) / ITALY ] 123.26 BPM
  691. 2019-07-17 08:53:16 FUN FUN - COULD THIS BE LOVE (HOUSE REMIX) [ 1987, X-ENERGY RECORDS (X-12025) / ITALY ] 122.38 BPM
  692. 2019-07-17 08:48:34 VLADY SHERKANE - CHA CHA CHA FOR YOU [ 1986, CARRERE RECORDS (8679) / FRANCE ] 122.02 BPM
  693. 2019-07-17 08:45:06 SILENT CIRCLE - TOUCH IN THE NIGHT [ 1985, BLOW UP RECORDS (INT 125.547) / GERMANY ] 122.02 BPM
  694. 2019-07-17 08:41:18 CHERRY - MAGIC HOLIDAY [ 1989, MEET RECORDS (MEET 191) / ITALY ] 122.1 BPM
  695. 2019-07-17 08:36:11 MATA-HARI - MATA-HARI [ 1987, BLANCO Y NEGRO RECORDS (MX 174) / SPAIN ] 122.1 BPM
  696. 2019-07-17 08:32:30 BABY'S GANG - JAMIN [ 1985, MEMORY RECORDS (ME LP 002) / ITALY ] 121.49 BPM
  697. 2019-07-17 08:28:29 IMAGE - HOT STUFF [ 1984, MEMORY RECORDS (MEMIX 025) / ITALY ] 121.49 BPM
  698. 2019-07-17 08:23:54 BETTY MIRANDA - LET'S ALL FALL IN LOVE [ 1985, MANY RECORDS (MN 542) / ITALY ] 121.93 BPM
  699. 2019-07-17 08:20:21 TRACY SPENCER - TAKE ME BACK [ 1987, IBIZA RECORDS (IBZ 438) / ITALY ] 121.01 BPM
  700. 2019-07-17 08:17:50 TWIGGY BOP - MANOLITO [ 1988, DISCOCLUB RECORDS (CLUB 3141) / ITALY ] 120.58 BPM
  701. 2019-07-17 08:13:28 RYN'O - GIGOLO' [ 1984, WMB PRODUCTION (WMB 001) / ITALY ] 121.52 BPM
  702. 2019-07-17 08:08:52 TAFFY - I LOVE MY RADIO (USA REMIX) [ 1986, IBIZA RECORDS (IBZ 422) / ITALY ] 121.52 BPM
  703. 2019-07-17 08:04:23 MARK FARINA - EASY LIFE [ 1985, MANY RECORDS (MN 552) / ITALY ] 121.52 BPM
  704. 2019-07-17 08:00:26 MICAELA - SI SEÑOR [ 1988, JOCKS RECORDS (FTM 31614) / ITALY ] 121.52 BPM
  705. 2019-07-17 07:55:50 HUGH BULLEN - ALISAND [ 1985, MANY RECORDS (MN 541) / ITALY ] 121.56 BPM
  706. 2019-07-17 07:53:18 HIPNOSIS - ARGONAUTS [ 1984, MEMORY RECORDS (MEMIX 023) / ITALY ] 121.56 BPM
  707. 2019-07-17 07:50:00 J. DOLPHIN - ALL THAT I WANT IS TO SAY [ 1987, BMS RECORDS (BMS 324) / ITALY ] 121.56 BPM
  708. 2019-07-17 07:46:08 NEW YORK MODELS - HOT FOR YOU [ 1984, MEMO RECORDS (MEMO 51) / US ] 121.56 BPM
  709. 2019-07-17 07:42:35 JOHN ARROW - MEXICO [ 1985, DISCOMAGIC RECORDS (MIX 282) / ITALY ] 121.73 BPM
  710. 2019-07-17 07:39:35 RIC FELLINI - WELCOME TO RIMINI (RE-EDIT) [ 1984, BEST RECORDS (BEST 12033) / ITALY ] 121.73 BPM
  711. 2019-07-17 07:35:32 LIPPS, INC. - FUNKYTOWN [ 1979, CASABLANCA RECORDS (NBD 20207 DJ) / US ] 122.48 BPM
  712. 2019-07-17 07:32:23 GEE RAMPLY - RADIO STYLE [ 1984, FDT RECORDS (FDT 006) / ITALY ] 123.14 BPM
  713. 2019-07-17 07:27:27 MOSES - OUR REVOLUTION (NEW MIX) [ 1985, REVOLUTION RECORDS (REV 111) / ITALY ] 123.14 BPM
  714. 2019-07-17 07:24:05 TIME - SHAKER SHAKE [ 1983, FLY MUSIC (TPF 002/83) / ITALY ] 123.14 BPM
  715. 2019-07-17 07:20:26 SUN-LA-SHAN - CATCH [ 1982, SUPERRADIO RECORDS (SR 7004) / ITALY ] 123.14 BPM
  716. 2019-07-17 07:16:28 THE FLICS - TAKE IT EASY [ 1984, TANGA LABEL (TL 007) / ITALY ] 123.14 BPM
  717. 2019-07-17 07:13:53 WIRED - TO THE BEAT OF THE DRUM [ 1986, UNDERWORLD RECORDS (AP 124) / US ] 123.9 BPM
  718. 2019-07-17 07:09:29 MELA - I WANT YOUR LOVE [ 1989, ASIA RECORDS (ARD 1040) / ITALY ] 123.9 BPM
  719. 2019-07-17 07:03:59 BRIAN ICE - WALKING AWAY [ 1989, MEMORY RECORDS (MEMIX 091) / ITALY ] 123.9 BPM
  720. 2019-07-17 06:59:35 TROPHY - SLOW FLIGHT [ 1982, FUZZ DANCE RECORDS (ZZ 20.001) / ITALY ] 123.9 BPM
  721. 2019-07-17 06:53:32 MARK FARINA - TO MY HEART [ 1988, ASIA RECORDS (ARD 1010) / ITALY ] 124.59 BPM
  722. 2019-07-17 06:49:25 B.FUNK FEAT. SALLY O' - BLIND LOVE [ 1982, PHOENIX RECORDS (PHOMIX 312) / ITALY ] 124.05 BPM
  723. 2019-07-17 06:45:43 GIPSY & QUEEN - BROW SUGAR [ 1987, TIME RECORDS (TRD 1050) / ITALY ] 123.44 BPM
  724. 2019-07-17 06:40:00 MOZZART - DEVIL'S RENDEZVOUS [ 1985, METRONOME RECORDS (883 494-1) / GERMANY ] 122.95 BPM
  725. 2019-07-17 06:34:44 MICHELE - MONEY, MONEY, MONEY [ 1988, FIVE RECORDS (FM 13823) / ITALY ] 123.26 BPM
  726. 2019-07-17 06:29:58 ART DÉCO - EUROPEAN CRIME [ 1985, ART RETRO IDEAS RECORDS (ARI 1202) / ITALY ] 123.86 BPM
  727. 2019-07-17 06:27:02 CIAO FELLINI - NOCHE BAHIA [ 1986, DDD RECORDS (DDD 0062) / ITALY ] 124.31 BPM
  728. 2019-07-17 06:22:03 JOCK HATTLE - TO BE OR NOT TO BE [ 1986, TIME RECORDS (TRD 1031) / ITALY ] 124.31 BPM
  729. 2019-07-17 06:17:49 DOLLAR - O L'AMOUR [ 1987, LONDEN RECORDS (LONX 146) / UK ] 125.03 BPM
  730. 2019-07-17 06:14:22 ROXANA - FRAGILE [ 1988, CRUISIN' RECORDS (CRN 53504) / ITALY ] 125.03 BPM
  731. 2019-07-17 06:10:54 TOM MAURICE - NEW WORLD [ 1987, OUT RECORDS (OUT 3113) / ITALY ] 124.67 BPM
  732. 2019-07-17 06:08:35 SARAH - WALKIE TALKIE TANZE [ 1988, TWIST AGAIN RECORDS (TA 004) / ITALY ] 124.8 BPM
  733. 2019-07-17 06:04:36 ALEPH - IN YOUR EYES [ 1984, CARAVEL RECORDS (CAR R004) / ITALY ] 124.53 BPM
  734. 2019-07-17 06:01:47 THOMAS & SCHUBERT - EYES OF ICE [ 1990, FLEA RECORDS (FL 8442) / ITALY ] 125.39 BPM
  735. 2019-07-17 05:57:31 BRYAN BAKER - NIAGARA FALLS [ 1985, SPEED RECORDS (SPR 12021) / ITALY ] 125.39 BPM
  736. 2019-07-17 05:51:53 MAX COVERI & ROBY GABRIELLI - LOVE WILL KEEP US HIGHER [ 1989, RADIORAMA PRODUCTIONS (RA 89.16) / ITALY ] 125.39 BPM
  737. 2019-07-17 05:45:38 MANUEL DE LEO - HASTA LA VISTA [ 1984, IL DISCOTTO PRODUCTIONS (ART 1042) / ITALY ] 125.39 BPM
  738. 2019-07-17 05:43:13 BEATA - DO YOU KNOW [ 1986, DURIUM RECORDS (DEX 13089) / ITALY ] 125.39 BPM
  739. 2019-07-17 05:39:45 BOBBY 'O' - SHE HAS A WAY (REMIX) [ 1983, BMC RECORDS (BMC 20.001) / BELGIUM ] 125.39 BPM
  740. 2019-07-17 05:37:42 ANDREA - I NEED YOU SO [ 1992, FCF RECORDS (FCF 42/92) / ITALY ] 125.08 BPM
  741. 2019-07-17 05:34:46 OSCAR - IT'S MY LIFE [ 1988, RADIORAMA PRODUCTIONS (RA 88.07) / ITALY ] 125.07 BPM
  742. 2019-07-17 05:28:20 PATRICK COWLEY - MENERGY [ 1981, FUSION RECORDS (FPSF 003) / US ] 125.07 BPM
  743. 2019-07-17 05:24:14 GIRLS TEMPTATION - COME BACK BABY [ 1989, FINZY RECORDS (FZR 002) / ITALY ] 125.07 BPM
  744. 2019-07-17 05:21:16 LUCIO DAVID - TIME TO TRY [ 1987, MANN RECORDS (30010) / FRANCE ] 124.66 BPM
  745. 2019-07-17 05:14:06 SANDY MARTON - EXOTIC AND EROTIC [ 1985, IBIZA RECORDS (IBZ 416) / ITALY ] 124.77 BPM
  746. 2019-07-17 05:11:39 SPARKS - BEAT THE CLOCK [ 1979, VIRGIN RECORDS (VS 27012) / UK ] 124.08 BPM
  747. 2019-07-17 05:08:40 SPHINX - COLLISION [ 1982, SYSTEM MUSIC (SM 23581) / ITALY ] 124.08 BPM
  748. 2019-07-17 05:03:00 KOTO - MIND MACHINE [ 1992, ZYX RECORDS (ZYX 6719-12) / GERMANY ] 124.08 BPM
  749. 2019-07-17 04:57:37 ANGELO MARIA MORALES - SWEET SURRENDER [ 1989, RADIORAMA PRODUCTIONS (RA 89.15) / ITALY ] 124.81 BPM
  750. 2019-07-17 04:54:17 TAFFY - WHITE & BLACK (REMIX) [ 1986, PHOENIX RECORDS (PHOMIX 314) / ITALY ] 125.08 BPM
  751. 2019-07-17 04:51:21 ROW BOB - TROUBLE COMIN' EVERY DAY [ 1984, FDT 003 (FDT 003) / ITALY ] 125.65 BPM
  752. 2019-07-17 04:48:02 BOBBY 'O' - HOW TO PICK UP GIRLS [ 1983, BMC RECORDS (BMC 10004) / BELGIUM ] 125.42 BPM
  753. 2019-07-17 04:44:21 ROY - SHOOTING STAR [ 1987, MEMORY RECORDS (MEMIX 062) / ITALY ] 125.42 BPM
  754. 2019-07-17 04:40:13 JEAN RICH - DON'T GET SERIOUS [ 1986, X-ENERGY RECORDS (X-12016) / ITALY ] 125.99 BPM
  755. 2019-07-17 04:33:00 KEN LASZLO - HEY HEY GUY [ 1984, MEMORY RECORDS (MEMIX 016) / ITALY ] 125.99 BPM
  756. 2019-07-17 04:30:06 GIRLY - WORKING GIRL [ 1983, 'O' RECORDS (O 1) / US ] 125.32 BPM
  757. 2019-07-17 04:27:03 LE FERRARI - ELECTRIC MAN [ 1991, FCF RECORDS (FCF 37) / ITALY ] 125.81 BPM
  758. 2019-07-17 04:24:37 G.A.G. - FLY [ 1986, NEW RECORDS (11945) / FRANCE ] 125.81 BPM
  759. 2019-07-17 04:18:25 JADE - I'M GONNA GET YOUR LOVE [ 1982, POLYDOR RECORDS (2141 582) / CANADA ] 125.81 BPM
  760. 2019-07-17 04:14:14 VISIONS - CALL ME TONIGHT [ 1986, ACADEMY RECORDS (ACD 8506) / ITALY ] 125.81 BPM
  761. 2019-07-17 04:05:26 GAZEBO - MASTERPIECE [ 1982, BABY RECORDS (BR 54015) / ITALY ] 125.81 BPM
  762. 2019-07-17 04:01:15 PSYCHIC INTERFACE - DANCING IN THE NIGHT [ 1986, ZYX RECORDS (ZYX 5435) / GERMANY ] 125.81 BPM
  763. 2019-07-17 03:57:09 SISLEY FERRÉ - OPEN YOUR EYES (ULTIMIX) [ 1987, MEGATONE RECORDS (MT 152) / US ] 125.32 BPM
  764. 2019-07-17 03:53:35 SOPHIE - FACE TO FACE [ 1989, TIME RECORDS (TRD 1105) / ITALY ] 125.32 BPM
  765. 2019-07-17 03:48:30 VIVIEN VEE - GIVE ME A BREAK ('88 REMIX) [ 1988, X-ENERGY RECORDS (X-12035) / ITALY ] 125.79 BPM
  766. 2019-07-17 03:44:25 DOCTOR GROOVE - YOUR COMPANY [ 1992, RADIORAMA PRODUCTIONS (RA 39/92) / ITALY ] 125.51 BPM
  767. 2019-07-17 03:40:35 JASMINE - RUNNING DOWN [ 1989, HIGH ENERGY RECORDS (HE 119) / ITALY ] 125.51 BPM
  768. 2019-07-17 03:37:55 J.F. & HITWAVE - DANCE FLOOR GIRL [ 1985, DD THOMPSON RECORDS (MP 306) / ITALY ] 125.51 BPM
  769. 2019-07-17 03:34:27 ATTACK - SPECIAL LOVE (REMIX) [ 1989, HOTSOUND RECORDS (HS 8920) / NETHERLANDS ] 125.06 BPM
  770. 2019-07-17 03:31:44 DRESSED TO KILL - CRASH BAM BOOM [ 1987, PLASTIC RECORDS (PL 87-100) / US ] 125.06 BPM
  771. 2019-07-17 03:26:48 ANGELO MARIA MORALES - YOU MEAN LOVE [ 1991, RADIORAMA PRODUCTIONS (RA 30/91) / ITALY ] 126.05 BPM
  772. 2019-07-17 03:22:59 KANO - HOLLY DOLLY [ 1980, BABY RECORDS (BR 54002) / ITALY ] 126.9 BPM
  773. 2019-07-17 03:19:30 DIVINE - LOVE REACTION [ 1983, DESIGN COMMUNICATIONS RECORDS (DEST 4) / UK ] 126.9 BPM
  774. 2019-07-17 03:15:15 WILSON FERGUSON - SHOW ME [ 1989, EUROENERGY (EURO 2801) / ITALY ] 127.89 BPM
  775. 2019-07-17 03:11:59 DOSIO - DANCIN' [ 1983, TOP SECRET RECORDS (TS 1001) / ITALY ] 127.06 BPM
  776. 2019-07-17 03:07:27 AMELI - NEW ROMANTIC [ 1984, DISCOMAGIC RECORDS (MIX 167) / ITALY ] 127.06 BPM
  777. 2019-07-17 03:04:10 KIM TAYLOR - COME WITH ME [ 1990, HOTSOUND RECORDS (HS 9010) / NETHERLANDS ] 127.06 BPM
  778. 2019-07-17 03:00:05 JASMINE - RUNAWAY [ 1988, DISCOMAGIC RECORDS (MIX 345) / ITALY ] 127.06 BPM
  779. 2019-07-17 02:55:54 WATERFRONT HOME - TAKE A CHANCE (ON ME) [ 1983, BOBCAT RECORDS (4Z9 04061) / ITALY ] 127.57 BPM
  780. 2019-07-17 02:53:31 M & H BAND - POP CORN (VERSION 1987) [ 1987, FAMILY RECORDS (11968) / FRANCE ] 127.57 BPM
  781. 2019-07-17 02:50:23 SABRINA - LIKE A YO YO [ 1988, VIDEOGRAM RECORDS (VI 121203-1) / ITALY ] 127.57 BPM
  782. 2019-07-17 02:46:21 E.L. GANG - SUPERMAN (YOU THRILL WITH YOUR SUPER LOVE) [ 1989, RADIORAMA PRODUCTIONS (RA 89.17) / ITALY ] 127.85 BPM
  783. 2019-07-17 02:40:59 CHIP CHIP - NEVER SAY GOODBYE [ 1986, BMS RECORDS (BMS 314) / ITALY ] 127.12 BPM
  784. 2019-07-17 02:37:43 LISA - STAND UP AND SING [ 1989, HIGH ENERGY RECORDS (HE 121) / ITALY ] 127.12 BPM
  785. 2019-07-17 02:33:25 MICHAEL FORTUNATI - GIVE ME UP [ 1986, ARIOLA RECORDS (602 203) / GERMANY ] 126.37 BPM
  786. 2019-07-17 02:29:29 AZOTO - SOFT EMOTION [ 1979, VEDETTE RECORDS (MLP 5562) / ITALY ] 126.06 BPM
  787. 2019-07-17 02:24:02 MAX COVERI - GUY, GUY [ 1989, DISCOMAGIC RECORDS (MIX 348) / ITALY ] 126.69 BPM
  788. 2019-07-17 02:20:11 LAMA - NINETEEN NINETY THREE [ 1983, NUMERO UNO RECORDS (ZCN 7325) / ITALY ] 126.69 BPM
  789. 2019-07-17 02:16:24 BOBBY O - I CRY FOR YOU (REMIX) [ 1988, UNIDISC RECORDS (SPEC 1396) / CANADA ] 126.69 BPM
  790. 2019-07-17 02:12:59 NICK STRAKER - A WALK IN THE PARK (1987 PRODUCTION) [ 1987, SEDITION RECORDS (EDITL 3333) / UK ] 126.3 BPM
  791. 2019-07-17 02:09:20 MICHAEL FORTUNATI - BABY YOU [ 1992, FCF RECORDS (FCF 30) / ITALY ] 127.24 BPM
  792. 2019-07-17 02:04:57 ALBA - DANGEROUS [ 1987, MERAK MUSIC (MKX 040) / ITALY ] 127.81 BPM
  793. 2019-07-17 02:01:47 RADIORAMA - DADDY DADDY [ 1989, RADIORAMA PRODUCTIONS (RA 89.06) / ITALY ] 128.76 BPM
  794. 2019-07-17 01:58:10 ORANGE - FROM HALLEY [ 1982, G.V. RECORDS (G.V. 001) / ITALY ] 128.76 BPM
  795. 2019-07-17 01:55:02 MAURO MICHELONI - MEGLIO UN GELATO [ 1982, MM PRODUCTIONS (MMP 001) / ITALY ] 128.53 BPM
  796. 2019-07-17 01:49:56 PAPARAZZI FEAT. JODY - NOW IS THE TIME [ 1987, INIFINITY RECORDS (INF 12517) / BELGIUM ] 128.53 BPM
  797. 2019-07-17 01:47:42 BABY BABY - THE DAY OF DOOM DOOM [ 1989, HIGH ENERGY RECORDS (ENERGY 100) / ITALY ] 128.53 BPM
  798. 2019-07-17 01:43:03 TAPPS - MY FORBIDDEN LOVER [ 1983, POWER RECORDS (PXD 003) / CANADA ] 128.62 BPM
  799. 2019-07-17 01:38:04 MAX COVERI & ROBY GABRIELLI - LIKE A SUMMER RAIN [ 1990, ITALIAN COMPANY RECORDS (IC 004) / ITALY ] 128.62 BPM
  800. 2019-07-17 01:33:37 PAUL PARKER - SHOT IN THE NIGHT [ 1983, MEGATONE RECORDS (MT 107) / US ] 127.98 BPM
  801. 2019-07-17 01:29:37 JASMINE - RUNAWAY (REMIX) [ 1989, TIME RECORDS (TRD 1120) / ITALY ] 128 BPM
  802. 2019-07-17 01:26:13 CLAUDIA T. - FATAL DESTINATION [ 1989, MADE UP RECORDS (MUR 912) / NETHERLANDS ] 127.1 BPM
  803. 2019-07-17 01:20:50 IAN LEX AND LISA - NO MORE TEARS (ENOUGH IS ENOUGH) [ 1990, HIGH ENERGY RECORDS (HE 139) / ITALY ] 127.1 BPM
  804. 2019-07-17 01:16:58 JACQUELINE - EVERY BEAT OF MY HEART [ 1987, HI-TECH DANCE MUSIC (ROM 001-12) / NETHERLANDS ] 127.1 BPM
  805. 2019-07-17 01:14:23 MOULIN ROUGE - D.J. I WANNA BE YOUR RECORD [ 1988, EXPANDED MUSIC (EX 46Y) / ITALY ] 126.84 BPM
  806. 2019-07-17 01:10:23 CRISTAL - PHONIC [ 1977, CROCOS RECORDS (G 457 702) / FRANCE ] 126.63 BPM
  807. 2019-07-17 01:05:51 MARX & SPENCER - STAY [ 1983, DISCOMAGIC RECORDS (DM 20127) / ITALY ] 126.63 BPM
  808. 2019-07-17 01:02:26 ATTACK FEAT. SISLEY FERRÉ - SPECIAL LOVE [ 1987, HOTSOUND RECORDS (HS 8726) / NETHERLANDS ] 126.63 BPM
  809. 2019-07-17 00:57:46 DR. GROOVE - MIDNIGHT MANIAC [ 1983, BREAK RECORDS (308464) / NETHERLANDS ] 126.59 BPM
  810. 2019-07-17 00:54:16 CARGO SLAP - COMPETITION [ 1986, DISCO IN RECORDS (NPS 005563) / ITALY ] 126.59 BPM
  811. 2019-07-17 00:51:06 SANTA CLAUS & D'JINGLE BELLS - HOW MANY TIMES [ 1991, FCF RECORDS (FCF 18) / ITALY ] 126.49 BPM
  812. 2019-07-17 00:48:20 THE TWINS - NOT THE LOVING KIND [ 1983, HANSA INTERNATIONAL RECORDS (600 872-213) / GERMANY ] 126.49 BPM
  813. 2019-07-17 00:44:37 GIPSY & QUEEN - GIPSY & QUEEN - I LOVE U.S.A. [ 1989, TIME RECORDS (TRD 1071) / ITALY ] 126.16 BPM
  814. 2019-07-17 00:41:20 TAFFY - WHITE AND BLACK [ 1982, PHOENIX RECORDS (PHOMIX 310) / ITALY ] 126.16 BPM
  815. 2019-07-17 00:37:07 FAWZIA - PLEASE, DON'T BE SO SAD [ 1984, ITALIAN RECORDS (EXIT M 519) / ITALY ] 126.16 BPM
  816. 2019-07-17 00:31:48 ANGELO MARIA MORALES - SWEET SURRENDER [ 1989, RADIORAMA PRODUCTIONS (RA 89.15) / ITALY ] 126.16 BPM
  817. 2019-07-17 00:26:45 MIKE MAREEN - LOVE SPY (SALUTATION-MIX) [ 1987, GALAXIS RECORDS (GLX 9017) / GERMANY ] 126.16 BPM
  818. 2019-07-17 00:23:27 MIKE TOMASELLI - CRAZY OR NOT [ 1984, LET'S DANCE RECORDS (LDR 070) / US ] 126.96 BPM
  819. 2019-07-17 00:18:16 FUN FUN - GIVE ME YOUR LOVE (REMIX) [ 1985, X-ENERGY RECORDS (X-12010) / ITALY ] 126.96 BPM
  820. 2019-07-17 00:14:38 MOLTOCARINA - LOVE FOR SALE [ 1989, ASIA RECORDS (ARD 1027) / ITALY ] 127.65 BPM
  821. 2019-07-17 00:09:09 CLAUDIA BENN - MISTER HASTA LA VISTA [ 1989, VIDISCO RECORDS (11.20.224) / PORTUGAL ] 127.42 BPM
  822. 2019-07-17 00:06:25 MELANIE BELL - I DON'T WANNA BE LIKE YOU [ 1990, RADIORAMA PRODUCTIONS (RA 89.18) / ITALY ] 127.95 BPM
  823. 2019-07-16 23:59:27 BLACK ROSE - DON'T STOP [ 1987, OUT RECORDS (OUT 3121) / ITALY ] 127.24 BPM
  824. 2019-07-16 23:54:17 HOTLINE - GUILTY (REMIX) [ 1985, UNIDISC RECORDS (SPEC 1257) / CANADA ] 128.01 BPM
  825. 2019-07-16 23:50:02 LAURIE - SWEET LOVER [ 1989, ASIA RECORDS (ARD 1038) / ITALY ] 127.1 BPM
  826. 2019-07-16 23:46:02 ROGER MENO - LOVE, GOODBYE [ 1985, ZYX RECORDS (ZYX 5267) / GERMANY ] 127.1 BPM
  827. 2019-07-16 23:42:02 FRED VENTURA - HEARTBEAT [ 1988, TIME RECORDS (TRD 1067) / ITALY ] 127.1 BPM
  828. 2019-07-16 23:38:15 SHARON - LOVE IS A SOUL MISTERY [ 1990, FINZY RECORDS (FZR 005) / ITALY ] 127.1 BPM
  829. 2019-07-16 23:34:51 CRUISIN' GANG - ON THE BEACH TONIGHT [ 1985, CRUISIN' RECORDS (CRN 729) / ITALY ] 126.74 BPM
  830. 2019-07-16 23:29:48 SILVER POZZOLI - LOVE IS THE BEST [ 1989, TIME RECORDS (TRD 1099) / ITALY ] 126.74 BPM
  831. 2019-07-16 23:26:16 MARK IMPERIAL - J'ADORE DANSER [ 1985, D.J. INTERNATIONAL RECORDS (DJ 896) / US ] 126.74 BPM
  832. 2019-07-16 23:22:49 FRED VENTUA - THE YEARS (EXTRA SPECIAL REMIX) [ 1988, TIME RECORDS (TRD 1095) / ITALY ] 126.24 BPM
  833. 2019-07-16 23:17:15 MIKE HAZZARD - YOU [ 1989, ASIA RECORDS (ARD 1033) / ITALY ] 126.57 BPM
  834. 2019-07-16 23:13:44 ANTHONY'S GAMES - HEY, HEY, GIRL [ 1985, RAM PRODUCTIONS (RAM 00885) / ITALY ] 127.26 BPM
  835. 2019-07-16 23:10:19 ADRIANA - SUNNY DAY [ 1989, FINZY RECORDS (FZR 003) / ITALY ] 127.26 BPM
  836. 2019-07-16 23:03:25 YVONNE KAY - RISE UP (FOR MY LOVE) [ 1985, X-ENERGY RECORDS (X-12009) / ITALY ] 126.95 BPM
  837. 2019-07-16 23:00:04 SAVAGE - DON'T LEAVE ME [ 1990, EUROENERGY RECORDS (EURO 2809) / ITALY ] 127.47 BPM
  838. 2019-07-16 22:55:34 MR. BLACK - DANCE TOGETHER [ 1992, ASIA RECORDS (ARD 1113) / ITALY ] 127.47 BPM
  839. 2019-07-16 22:53:06 STEVE CLARK - MAMBO [ 1987, MAX MUSIC (MAX 263) / ITALY ] 127.47 BPM
  840. 2019-07-16 22:48:59 PATTY PHILLIPE - BURNIN [ 1984, MEMO RECORDS (MEMO 37) / US ] 127.81 BPM
  841. 2019-07-16 22:45:44 BABY'S GANG - MY LITTLE JAPANESE BOY [ 1985, MEMORY RECORDS (ME LP 002) / ITALY ] 128.3 BPM
  842. 2019-07-16 22:41:33 X RAY CONNECTION - ESCAPE FROM SPACE [ 1984, BREAK RECORDS (841017) / NETHERLANDS ] 128.56 BPM
  843. 2019-07-16 22:38:13 ATTACK - SPECIAL LOVE (REMIX) [ 1989, HOTSOUND RECORDS (HS 8920) / NETHERLANDS ] 128.28 BPM
  844. 2019-07-16 22:34:07 ASIA GANG - DEDICATED TO FREDDY [ 1992, ASIA RECORDS (ARD 1111) / ITALY ] 128.28 BPM
  845. 2019-07-16 22:30:30 OH ROMEO - LIVING OUT OF FANTASY [ 1987, MEMO RECORDS (MEMO-MM 87-301) / US ] 128.28 BPM
  846. 2019-07-16 22:26:25 DIVINE - YOU THINK YOU'RE A MAN [ 1984, PROTO RECORDS (ENA(T) 118) / UK ] 128.28 BPM
  847. 2019-07-16 22:22:56 NORMAN - LOVER GIRL [ 1986, DISCOS GAMES RECORDS (DG 1215) / ITALY ] 128.28 BPM
  848. 2019-07-16 22:20:47 RONI GRIFFITH - THAT'S ROCK AND ROLL [ 1982, VANGUARD RECORDS (VSD 79444) / US ] 129.26 BPM
  849. 2019-07-16 22:17:38 HOTLINE - GUILTY [ 1984, MEMO RECORDS (MEMO 18) / US ] 129.56 BPM
  850. 2019-07-16 22:14:32 RSVP - CLEOPATRA [ 1987, PANA RECORDS (PDM 12003) / ITALY ] 128.68 BPM
  851. 2019-07-16 22:08:31 DIANA EST - LE LOUVRE [ 1983, RICORDI RECORDS (SRLM 2027) / ITALY ] 128.68 BPM
  852. 2019-07-16 22:03:28 MIKE HAZZARD - STAY WITH ME [ 1989, ASIA RECORDS (ARD 1051) / ITALY ] 128.68 BPM
  853. 2019-07-16 21:59:48 ALAN ROSS - CIAO [ 1989, MEMORY RECORDS (MEMIX 093) / ITALY ] 128.68 BPM
  854. 2019-07-16 21:56:35 FINZY KONTINI - CLAP YOUR HANDS [ 1987, ANERICAN DISCO RECORDS (AMD 027) / ITALY ] 128.22 BPM
  855. 2019-07-16 21:52:46 JOE YELLOW - TAKE MY HEART [ 1984, DISCOMAGIC RECORDS (MIX 186) / ITALY ] 127.44 BPM
  856. 2019-07-16 21:49:15 CHRIS - MY MY MY [ 1988, ASIA RECORDS (ARD 1021) / ITALY ] 127.44 BPM
  857. 2019-07-16 21:43:41 RED & JO - I'M LONESOME TONIGHT [ 1986, LOMBARDONI PUBLISHINGS (LMB 010) / ITALY ] 126.91 BPM
  858. 2019-07-16 21:39:08 LAURIE - YOU CAN TELL ME [ 1991, FCF RECORDS (FCF 19) / ITALY ] 126.07 BPM
  859. 2019-07-16 21:36:04 KEN LASZLO - HEY HEY GUY (USA REMIX) [ 1987, MEMORY RECORDS (ME LP 005) / ITALY ] 126.76 BPM
  860. 2019-07-16 21:30:38 GET FLASH - BEAUTIFUL NIGHT [ 1983, OUT RECORDS (OUT 3002) / ITALY ] 126.76 BPM
  861. 2019-07-16 21:25:57 NEW YORK RAPPERS - TRUE LOVE [ 1991, ITALIAN COMPANY RECORDS (IC 10/91) / ITALY ] 126.2 BPM
  862. 2019-07-16 21:21:58 MARK FARINA - INFATUATION [ 1991, FCF RECORDS (FCF 24) / ITALY ] 127.07 BPM
  863. 2019-07-16 21:18:58 SASHA - DON'T YOU BREAK MY HEART [ 1989, HIGH ENERGY RECORDS (ENERGY 101) / ITALY ] 127.58 BPM
  864. 2019-07-16 21:14:42 ANNABELLE - IN YOUR ARMS [ 1990, DISCO HENERGY (DH 1001) / ITALY ] 127.81 BPM
  865. 2019-07-16 21:07:16 ROFO - ROFO'S THEME [ 1987, INFINITY RECORDS (INF 12519) / BELGIUM ] 127.42 BPM
  866. 2019-07-16 21:02:34 MAX-GANG - AUTOMATIC LOVER [ 1987, I.D.D. ONE RECORDS (I.D.D. Z04) / ITALY ] 127.97 BPM
  867. 2019-07-16 20:57:23 LOVERDE - DIE HARD LOVER [ 1982, MOBY DICK RECORDS (BTG 1132) / US ] 127.65 BPM
  868. 2019-07-16 20:54:44 MAGIC - I WANNA BE YOUR LOVER [ 1987, BCM RECORDS (B.C. 12-2018-40) / GERMANY ] 127.65 BPM
  869. 2019-07-16 20:50:42 FAKE - DONNA ROUGE (VOGLIO FARE L'AMORE) [ 1983, DID RECORDS (FS 0501083) / ITALY ] 126.97 BPM
  870. 2019-07-16 20:46:54 VENUS - HOT SUN ON VIDEO [ 1985, COCONUT RECORDS (601 656) / GERMANY ] 127.15 BPM
  871. 2019-07-16 20:42:05 ROSS - CAN'T TAKE MY EYES OFF YOU [ 1986, BMS RECORDS (BMS 313) / ITALY ] 127.15 BPM
  872. 2019-07-16 20:39:18 KIM LEONARD - BABY, I NEED YOU [ 1985, ARMINIA RECORDS (SRI 45262) / GERMANY ] 127.15 BPM
  873. 2019-07-16 20:34:49 PAUL LEKAKIS - BOOM BOOM (LET'S GO BACK TO MY ROOM) (U.S. REMIX) [ 1987, ESQUIRE RECORDS (SQ 87504) / ITALY ] 128.14 BPM
  874. 2019-07-16 20:31:25 BARBIE YOUNG - EXCITED [ 1992, RADIORAMA PRODUCTIONS (RA 41/02) / ITALY ] 128.14 BPM
  875. 2019-07-16 20:27:32 JENNY KEE - HOT LOVE [ 1988, ASIA RECORDS (ARD 1006) / ITALY ] 127.57 BPM
  876. 2019-07-16 20:24:24 SUSAN STEVENS - I LOVE EVERYTHING YOU DO [ 1983, TOJO RECORDS (T12-1008) / CANADA ] 127.57 BPM
  877. 2019-07-16 20:19:52 MR. BLACK - DANCE TOGETHER [ 1992, ASIA RECORDS (ARD 1113) / ITALY ] 127.57 BPM
  878. 2019-07-16 20:15:14 NEW YORK RAPPERS - TRUE LOVE [ 1991, ITALIAN COMPANY RECORDS (IC 10/91) / ITALY ] 127.57 BPM
  879. 2019-07-16 20:11:01 AMIN-PECK - SUICIDAL [ 1983, BEST RECORDS (BEST 12015) / ITALY ] 127.57 BPM
  880. 2019-07-16 20:08:22 MAGIC - I WANNA BE YOUR LOVER [ 1987, BCM RECORDS (B.C. 12-2018-40) / GERMANY ] 127.65 BPM
  881. 2019-07-16 20:05:39 RIC FELLINI - WELCOME TO RIMINI (86 RE-REMIX) [ 1985, ROCK-IN RECORDS (ROCK LP 7) / HONG KONG ] 126.96 BPM
  882. 2019-07-16 20:00:29 FUN FUN - GIVE ME YOUR LOVE (REMIX) [ 1985, X-ENERGY RECORDS (X-12010) / ITALY ] 126.96 BPM
  883. 2019-07-16 19:55:43 EASY GOING - BABY I LOVE YOU (REMIX '88) [ 1988, BANANA RECORDS (BANANA RECORDS) / BAN 24509 ] 127.77 BPM
  884. 2019-07-16 19:51:29 ANNABELLE - IN YOUR ARMS [ 1990, DISCO HENERGY (DH 1001) / ITALY ] 127.81 BPM
  885. 2019-07-16 19:48:34 CAT BASSY - TONIGHT [ 1986, HANSA RECORDS (608 591) / ITALY ] 127.14 BPM
  886. 2019-07-16 19:44:47 CHRIS - LUCKY BOY [ 1989, ASIA RECORDS (ARD 1032) / ITALY ] 127.04 BPM
  887. 2019-07-16 19:39:26 SHADO - TONIGHT MY LOVE IS ALIVE [ 1989, MEMORY RECORDS (MEMIX 094) / ITALY ] 127.99 BPM
  888. 2019-07-16 19:36:02 CRUISIN' GANG - ON THE BEACH TONIGHT [ 1985, CRUISIN' RECORDS (CRN 729) / ITALY ] 127.11 BPM
  889. 2019-07-16 19:32:00 DOCTOR GROOVE - YOUR COMPANY [ 1992, RADIORAMA PRODUCTIONS (RA 39/92) / ITALY ] 127.11 BPM
  890. 2019-07-16 19:27:58 DOMINO - FEVER [ 1989, DISCOMAGIC RECORDS (MIX 356) / ITALY ] 127.02 BPM
  891. 2019-07-16 19:24:34 ATTACK - SPECIAL LOVE (REMIX) [ 1989, HOTSOUND RECORDS (HS 8920) / NETHERLANDS ] 126.47 BPM
  892. 2019-07-16 19:21:42 SUGAR SHAKE - MOONLIGHT [ 1986, BMS RECORDS (BMS 310) / ITALY ] 126.07 BPM
  893. 2019-07-16 19:17:07 LAURIE - YOU CAN TELL ME [ 1991, FCF RECORDS (FCF 19) / ITALY ] 126.07 BPM
  894. 2019-07-16 19:13:56 WISH KEY - ORIENT EXPRESS (REMIX) [ 1986, RA-RE PRODUCTIONS (RA-RE 016-86) / ITALY ] 125.77 BPM
  895. 2019-07-16 19:07:39 PATRICK COWLEY - MEGATRON MAN [ 1981, MEGATONE RECORDS (M 1002) / US ] 125.56 BPM
  896. 2019-07-16 19:04:04 SOPHIE - FACE TO FACE [ 1989, TIME RECORDS (TRD 1105) / ITALY ] 125.32 BPM
  897. 2019-07-16 19:00:24 GIPSY & QUEEN - BROW SUGAR [ 1987, TIME RECORDS (TRD 1050) / ITALY ] 124.53 BPM
  898. 2019-07-16 18:53:59 DEE D. JACKSON - MY SWEET CARILLON [ 1984, MONKEY PRODUCTIONS (MP 3302-0) / ITALY ] 124.53 BPM
  899. 2019-07-16 18:50:23 JOE YELLOW - WILD BOY [ 1989, DISCOMAGIC RECORDS (MIX 350) / ITALY ] 124.53 BPM
  900. 2019-07-16 18:47:18 PATTY RYAN - STAY WITH ME TONIGHT [ 1986, ZYX RECORDS (ZYX 5545) / GERMANY ] 124.53 BPM
  901. 2019-07-16 18:42:55 FELLI - DIAMOND IN THE NIGHT [ 1983, DISCOMAGIC RECORDS (MIX 135) / ITALY ] 123.98 BPM
  902. 2019-07-16 18:38:18 DAVE RODGERS - TENSION [ 1987, DISCOMAGIC RECORDS (MIX 323) / ITALY ] 124.36 BPM
  903. 2019-07-16 18:34:10 M.T.R. - THE WALK [ 1986, UNDERWORLD RECORDS (AP 125) / US ] 124.36 BPM
  904. 2019-07-16 18:29:31 KLEIN & MBO - WONDERFUL [ 1982, PHOENIX RECORDS (PHOMIX 311) / ITALY ] 124.36 BPM
  905. 2019-07-16 18:25:52 JOSY NOWACK - BREAK YOU DOWN [ 1984, CGD RECORDS (INT 15158) / ITALY ] 123.55 BPM
  906. 2019-07-16 18:22:46 LE FERRARI - ELECTRIC MAN [ 1991, FCF RECORDS (FCF 37) / ITALY ] 124.08 BPM
  907. 2019-07-16 18:20:44 LUSTT - PILLOW TALK [ 1983, BMC RECORDS (BMC 3568) / ITALY ] 124.86 BPM
  908. 2019-07-16 18:16:00 KASSO - KASSO [ 1981, F1 TEAM RECORDS (DM 915) / ITALY ] 124.53 BPM
  909. 2019-07-16 18:11:39 MARK FARINA - EASY LIFE [ 1985, MANY RECORDS (MN 552) / ITALY ] 124.53 BPM
  910. 2019-07-16 18:07:40 ALEPH - IN YOUR EYES [ 1984, CARAVEL RECORDS (CAR R004) / ITALY ] 124.53 BPM
  911. 2019-07-16 18:03:37 TINA - CRAZY FOR YOU [ 1988, FIVE RECORDS (FM 13824) / ITALY ] 124.62 BPM
  912. 2019-07-16 17:58:04 M LIKE MOON - DON'T COME BACK [ 1986, OUT RECORDS (OUT 3078) / ITALY ] 124.74 BPM
  913. 2019-07-16 17:54:33 RIS - LET'S STAY TOGETHER [ 1985, MANY RECORDS (MN 539) / ITALY ] 124.74 BPM
  914. 2019-07-16 17:49:25 O'GAR - PLAYBACK FANTASY [ 1983, MAGIC CIRCUS PRODUCTIONS (WRMCP 25002) / ITALY ] 125.18 BPM
  915. 2019-07-16 17:44:13 MARK - TROPICAL CLIMATE [ 1985, MONEY MOON RECORDS (MM 485) / ITALY ] 125.32 BPM
  916. 2019-07-16 17:41:19 PHIL GRANT - HEY GIRL [ 1984, MEMORY RECORDS (MEMIX 014) / ITALY ] 125.32 BPM
  917. 2019-07-16 17:38:00 DR MONEY - TIME AFTER TIME [ 1988, TIME RECORDS (TRD 1086) / ITALY ] 125.58 BPM
  918. 2019-07-16 17:34:26 SAVAGE - I'M LOOSING YOU (EUROENERGY REMIX) [ 1988, DISCOMAGIC RECORDS (MIX 347) / ITALY ] 125.58 BPM
  919. 2019-07-16 17:29:33 ROSS - CAN'T TAKE MY EYES OFF YOU [ 1986, BMS RECORDS (BMS 313) / ITALY ] 125.58 BPM
  920. 2019-07-16 17:24:28 MOTION - DON'T STOP [ 1982, TOJO RECORDS (T12-1003) / CANADA ] 125.98 BPM
  921. 2019-07-16 17:21:25 GRANT MILLER - RED FOR LOVE [ 1985, ZYX RECORDS (ZYX 5341) / GERMANY ] 125.19 BPM
  922. 2019-07-16 17:17:38 CAMOUFLAGE - MAYBE [ 1986, ATLANTIS RECORDS (MAXI 2502) / GREECE ] 125.19 BPM
  923. 2019-07-16 17:13:51 SLIP - DON'T LEAVE ME THIS WAY [ 1983, HANSA INTERNATIONAL RECORDS (105 502) / GERMANY ] 124.31 BPM
  924. 2019-07-16 17:09:56 JACQUELINE - EVERY BEAT OF MY HEART [ 1987, HI-TECH DANCE MUSIC (ROM 001-12) / NETHERLANDS ] 125.26 BPM
  925. 2019-07-16 17:07:08 IRENE - SUNDAY [ 1991, STIL NOVO RECORDS (SNR 00991) / ITALY ] 125.26 BPM
  926. 2019-07-16 17:01:30 MAX COVERI & ROBY GABRIELLI - LOVE WILL KEEP US HIGHER [ 1989, RADIORAMA PRODUCTIONS (RA 89.16) / ITALY ] 125.45 BPM
  927. 2019-07-16 16:58:11 BOBBY 'O' - HOW TO PICK UP GIRLS [ 1983, BMC RECORDS (BMC 10004) / BELGIUM ] 125.45 BPM
  928. 2019-07-16 16:53:39 LIAN ROSS - FANTASY (NEW REMIX) [ 1985, ZYX RECORDS (ZYX R 5320) / GERMANY ] 125.45 BPM
  929. 2019-07-16 16:49:49 GIPSY & QUEEN - GIPSY QUEEN (RE-EDIT VERSION) [ 1986, TIME RECORDS (TRD 1038) / ITALY ] 125.36 BPM
  930. 2019-07-16 16:47:06 DRESSED TO KILL - CRASH BAM BOOM [ 1987, PLASTIC RECORDS (PL 87-100) / US ] 125.06 BPM
  931. 2019-07-16 16:43:03 RADIORAMA - A B C D (ITALY REMIX) [ 1988, RADIORAMA PRODUCTIONS (RA 88.03) / ITALY ] 124.35 BPM
  932. 2019-07-16 16:39:32 COCKROACH - GET BACK [ 1983, OUT RECORDS (OUT 3001) / ITALY ] 124.35 BPM
  933. 2019-07-16 16:36:24 SANDY - SAMBAO [ 1984, SENSATION RECORDS (SNS 8005) / ITALY ] 124.36 BPM
  934. 2019-07-16 16:32:32 KINKY GO - YOU YOU YOU [ 1988, BMS RECORDS (BMS 333) / ITALY ] 124.36 BPM
  935. 2019-07-16 16:27:13 HANANAS - FROM HERE TO ETERNITY [ 1983, ZANZA RECORDS (ZR 123) / ITALY ] 125.06 BPM
  936. 2019-07-16 16:24:48 SPARKS - BEAT THE CLOCK [ 1979, VIRGIN RECORDS (VS 27012) / UK ] 125.44 BPM
  937. 2019-07-16 16:19:25 ANGELO MARIA MORALES - SWEET SURRENDER [ 1989, RADIORAMA PRODUCTIONS (RA 89.15) / ITALY ] 124.81 BPM
  938. 2019-07-16 16:15:27 TOM CAT - BLACK JACK [ 1988, MACHO RECORDS (MACHO 12.04) / ITALY ] 124.8 BPM
  939. 2019-07-16 16:13:08 SARAH - WALKIE TALKIE TANZE [ 1988, TWIST AGAIN RECORDS (TA 004) / ITALY ] 124.8 BPM
  940. 2019-07-16 16:09:57 SANTA CLAUS & D'JINGLE BELLS - HOW MANY TIMES [ 1991, FCF RECORDS (FCF 18) / ITALY ] 125.02 BPM
  941. 2019-07-16 16:06:49 SONNY GARCIA - FIX YOUR ANTENNA [ 1987, ZYX RECORDS (ZYX 5725) / GERMANY ] 124.69 BPM
  942. 2019-07-16 16:01:10 BRAND IMAGE - ARE YOU LOVING? [ 1983, IL DISCOTTO PRODUCTIONS (ART 1020) / ITALY ] 124.69 BPM
  943. 2019-07-16 15:57:44 FERNANDO 'FERNANDISCO' MARTINEZ - ACTION, PASSION, FASHION, MOVING [ 1985, MAX MUSIC (MAX 120) / SPAIN ] 124.69 BPM
  944. 2019-07-16 15:53:52 VIDEO CLUB - LOST TIME [ 1983, MAGIC CIRCUS PRODUCTIONS (MCP 25003) / ITALY ] 123.78 BPM
  945. 2019-07-16 15:51:39 THE CAESAR'S DANCERS - CHINESE BANG (MOSTRO REMIX) [ 1988, FLEA RECORDS (FL 8335) / ITALY ] 124.63 BPM
  946. 2019-07-16 15:48:14 BRIAN AND THE EDEN - WISHING YOU ALL THE BEST FOR SUMMER [ 1986, MAX MUSIC (MAX 186) / SPAIN ] 125.08 BPM
  947. 2019-07-16 15:44:00 GARY COOPER - NEVER CAN CHANGE MY MIND [ 1988, ASIA RECORDS (ARD 1015) / ITALY ] 124.59 BPM
  948. 2019-07-16 15:40:30 SHELLY BRIEN - HIT & RUN [ 1985, DISCOMAGIC RECORDS (MIX 248) / ITALY ] 124.59 BPM
  949. 2019-07-16 15:36:00 ROSS CONTI - IF PARADISE [ 1989, GREEN PRODUCTIONS (GP 19102) / ITALY ] 124.59 BPM
  950. 2019-07-16 15:33:16 J.F. & HITWAVE - DANCE FLOOR GIRL [ 1985, DD THOMPSON RECORDS (MP 306) / ITALY ] 123.76 BPM
  951. 2019-07-16 15:29:11 DIVINE - NATIVE LOVE (HOLLAND REMIX) [ 1982, K-TEL RECORDS (TN 1811) / NETHERLANDS ] 123.76 BPM
  952. 2019-07-16 15:24:58 MAX - DAY BY DAY [ 1989, OUT RECORDS (OUT 31.98) / ITALY ] 124.18 BPM
  953. 2019-07-16 15:21:53 SHY ROSE FEAT. TONEY D. AND THE LOVETRIP ORCHESTRA - YOU ARE MY DESIRE [ 1989, FANTASY INTERNATIONAL RECORDS (FAN 1205) / SWITZERLAND ] 125.03 BPM
  954. 2019-07-16 15:18:27 ATTACK FEAT. SISLEY FERRÉ - SPECIAL LOVE [ 1987, HOTSOUND RECORDS (HS 8726) / NETHERLANDS ] 125.03 BPM
  955. 2019-07-16 15:14:14 SLIZZY BOB - GLASSES [ 1985, POLYDOR RECORDS (883 527-1) / GERMANY ] 125.03 BPM
  956. 2019-07-16 15:10:16 AZOTO - SOFT EMOTION [ 1979, VEDETTE RECORDS (MLP 5562) / ITALY ] 125.03 BPM
  957. 2019-07-16 15:06:48 ROXANA - FRAGILE [ 1988, CRUISIN' RECORDS (CRN 53504) / ITALY ] 125.03 BPM
  958. 2019-07-16 15:02:43 RICKY DAVIES - MAGIC [ 1989, ASIA RECORDS (ARD 1042) / ITALY ] 125.34 BPM
  959. 2019-07-16 14:58:45 KA-ZAN - GIVE ME YOUR HEART [ 1986, PEECKER MELODY RECORDS (PME 128605) / ITALY ] 124.48 BPM
  960. 2019-07-16 14:53:40 WHY NOT - SMILE [ 1986, BMS RECORDS (BMS 308) / ITALY ] 123.51 BPM
  961. 2019-07-16 14:49:52 LORAINE - BODY SOUL ROCK'N ROLL [ 1990, HIGH ENERGY RECORDS (HE 132) / ITALY ] 122.92 BPM
  962. 2019-07-16 14:47:01 ATTACK - CRAZY FOR YOUR LOVE [ 1985, HOTSOUND RECORDS (HS 85612) / NETHERLANDS ] 122.92 BPM
  963. 2019-07-16 14:44:06 FANTASY - HE'S NUMBER ONE [ 1985, SPRING RECORDS (SPR 12-418) / US ] 122.98 BPM
  964. 2019-07-16 14:40:03 LIPPS, INC. - FUNKYTOWN [ 1979, CASABLANCA RECORDS (NBD 20207 DJ) / US ] 122.48 BPM
  965. 2019-07-16 14:36:04 ALAN BARRY - HIE HIE HIE [ 1987, TECHNOLOGY RECORDS (TECHNO 12.26) / ITALY ] 122.66 BPM
  966. 2019-07-16 14:33:05 RETE 105 - EEEE... VADI A RIO [ 1984, BABY RECORDS (BR 54048) / ITALY ] 122.66 BPM
  967. 2019-07-16 14:29:33 4-YOU - SHANG-HAIED [ 1986, SECOND LABEL (SL-M 4030) / SWITZERLAND ] 122.66 BPM
  968. 2019-07-16 14:25:38 JODY-J - LES AMERICAINS [ 1983, DYNAMO SOUND STUDIO (DSS 135) / ITALY ] 122.48 BPM
  969. 2019-07-16 14:21:18 CHIP CHIP - NO MORE TEARS [ 1988, FLEA RECORDS (FL 8409) / ITALY ] 122 BPM
  970. 2019-07-16 14:17:15 EVA DICKSON - PRESSURE LOVE [ 1988, EURO DISC (EM 99715) / SWITZERLAND ] 122 BPM
  971. 2019-07-16 14:11:01 DAVID LYME - PLAYBOY [ 1986, MAX MUSIC (MAX 184) / SPAIN ] 122.42 BPM
  972. 2019-07-16 14:07:26 RICK ROCK - TAKE ME AWAY [ 1987, BMS RECORDS (BMS 322) / ITALY ] 122.42 BPM
  973. 2019-07-16 14:03:02 BRYAN BAKER - NIAGARA FALLS [ 1985, SPEED RECORDS (SPR 12021) / ITALY ] 122.42 BPM
  974. 2019-07-16 13:58:55 JENNY KEE - CARRY ON [ 1991, FCF RECORDS (FCF 16) / ITALY ] 122.42 BPM
  975. 2019-07-16 13:53:21 COO COO - UPSIDE DOWN [ 1988, FLEA RECORDS (FL 8336) / ITALY ] 122.42 BPM
  976. 2019-07-16 13:49:10 BARBARA - BANANA BOOGIE [ 1990, FLEA RECORDS (FL 8460) / ITALY ] 122.42 BPM
  977. 2019-07-16 13:45:15 BABY'S GANG - HAPPY SONG (REMIX) [ 1985, MEMORY RECORDS (ME LP 002) / ITALY ] 122.42 BPM
  978. 2019-07-16 13:42:12 QUINTALINO BAND - MIGUEL SON MI [ TOP LINE PRODUCTIONS (RP 1201) / ITALY ] 122.42 BPM
  979. 2019-07-16 13:37:10 ANDROID - SKYDANCER [ 1986, STREETHEAT RECORDS (STH 12305) / NETHERLANDS ] 122.42 BPM
  980. 2019-07-16 13:32:10 ROBBY HOOD AND THE MUCH MORE - MOOVIN' ON [ 1986, BMS RECORDS (BMS 311) / ITALY ] 122.03 BPM
  981. 2019-07-16 13:25:15 GARY LOW - I WANT YOU [ 1983, CAT RECORDS (CAT 2006) / ITALY ] 122.03 BPM
  982. 2019-07-16 13:21:35 MONALISA - QUEEN OF LOVE [ 1987, HIT RECORDS (H 30.260) / ITALY ] 122.03 BPM
  983. 2019-07-16 13:17:27 ZETA - EH-AH-OH [ 1984, CRUISIN' RECORDS (CRN 707) / ITALY ] 122.03 BPM
  984. 2019-07-16 13:13:25 LIPPS, INC. - FUNKYTOWN [ 1979, CASABLANCA RECORDS (NBD 20207 DJ) / US ] 122.48 BPM
  985. 2019-07-16 13:09:45 TATJANA - AWAKA BOY [ 1988, HIGH FASHION MUSIC (1100736) / NETHERLANDS ] 122.29 BPM
  986. 2019-07-16 13:05:33 DAVID LYME - BYE BYE MI AMOR [ 1987, MAX MUSIC (MAX 233) / SPAIN ] 122.29 BPM
  987. 2019-07-16 13:02:03 SUN-LA-SHAN - ROSE FROM TOKYO [ 1983, SUPERRADIO RECORDS (SR 7009) / ITALY ] 122.09 BPM
  988. 2019-07-16 12:57:31 HUGH BULLEN - ALISAND [ 1985, MANY RECORDS (MN 541) / ITALY ] 123.02 BPM
  989. 2019-07-16 12:54:25 GRANT MILLER - RED FOR LOVE [ 1985, ZYX RECORDS (ZYX 5341) / GERMANY ] 123.5 BPM
  990. 2019-07-16 12:49:58 LISA JOHNSON - SAY GOODBYE [ 1988TRD 1089 / ITALY ] 124.13 BPM
  991. 2019-07-16 12:46:01 THE FLICS - TAKE IT EASY [ 1984, TANGA LABEL (TL 007) / ITALY ] 123.14 BPM
  992. 2019-07-16 12:38:34 HOTLINE - FANTASY [ 1982, UNIDISC (UNI 1094) / CANADA ] 123.85 BPM
  993. 2019-07-16 12:35:28 MAX COVERI AND RADIORAMA - ONE TWO THREE [ 1990, RADIORAMA PRODUCTIONS (RA 89.19) / ITALY ] 123.85 BPM
  994. 2019-07-16 12:31:32 ALAN BARRY - HIE HIE HIE [ 1987, TECHNOLOGY RECORDS (TECHNO 12.26) / ITALY ] 123.85 BPM
  995. 2019-07-16 12:27:23 SISLEY FERRÉ - GIVE ME YOUR LOVE (VOCAL REMIX VERSION) [ 1986, HOTSOUND RECORDS (HS 8612) / NETHERLANDS ] 123.1 BPM
  996. 2019-07-16 12:20:06 HELEN - I LOVE YOU [ 1989, MEMORY RECORDS (MEMIX 086) / ITALY ] 123.1 BPM
  997. 2019-07-16 12:15:53 MAX - DAY BY DAY [ 1989, OUT RECORDS (OUT 31.98) / ITALY ] 122.74 BPM
  998. 2019-07-16 12:11:35 TIZIANA RIVALE - MOVIESTORY [ 1986, GOLD RECORDS (ZL 34361) / ITALY ] 122.74 BPM
  999. 2019-07-16 12:07:33 ALEPH - IN YOUR EYES [ 1984, CARAVEL RECORDS (CAR R004) / ITALY ] 122.74 BPM
  1000. 2019-07-16 12:04:11 DAYDREAM - BABY BABY [ 1988, BLANCO Y NEGRO (MX 202) / SPAIN ] 122.74 BPM